GFSSW_700_rhum_000.txt.gz
RH
46 46 47 48 49 50 49 47 48 52 81 81 98 92 93 81 78 68 47 53 65 63 54 35 43 79 70 64 61 58 68 59 58 59 50 54 51 29 36 41 40 40 42 43 42
51 53 51 48 47 46 45 43 44 46 47 56 86 67 83 90 91 78 64 64 59 72 60 54 34 76 83 69 66 64 73 62 65 60 48 51 60 44 32 38 41 42 42 43 43
53 52 56 52 53 53 52 48 46 49 47 44 41 40 50 80 94 77 60 78 78 78 71 66 50 39 87 79 78 75 75 69 56 52 53 51 56 56 34 33 38 42 44 43 44
52 59 56 55 55 60 60 53 46 41 38 38 38 39 44 80 89 89 65 60 73 77 74 72 58 58 69 94 90 76 62 75 55 55 59 55 54 55 47 31 35 38 43 44 44
54 67 68 68 67 64 67 58 48 40 38 38 36 34 53 59 86 94 85 55 55 70 67 76 67 49 64 92 100 72 80 72 57 58 61 59 55 56 47 27 26 30 38 44 45
54 68 74 77 73 72 71 62 52 44 41 37 45 59 54 72 52 67 87 78 62 56 58 70 75 74 95 98 98 83 87 84 67 61 67 61 54 61 43 47 34 24 30 38 41
47 67 70 76 72 77 82 70 57 47 45 46 84 85 74 63 57 57 53 58 60 55 55 65 75 87 88 97 98 98 95 91 72 66 78 62 52 51 49 40 28 26 20 23 25
37 50 69 82 84 90 91 77 71 69 56 63 88 82 84 59 59 56 60 63 58 52 49 67 72 91 99 99 98 98 99 83 76 87 75 70 58 57 40 29 28 20 20 18 17
25 36 63 86 80 97 100 97 92 73 80 82 84 90 74 55 50 62 64 58 59 64 51 76 66 97 98 99 100 100 87 81 74 86 79 79 57 49 33 35 36 39 36 31 24
19 28 70 83 88 100 100 99 96 98 98 99 99 95 72 58 59 60 71 66 65 78 84 83 74 99 100 97 95 90 83 73 74 72 64 65 57 52 43 36 40 41 41 35 29
16 16 71 89 92 95 100 100 99 100 95 77 80 79 75 64 61 61 67 74 73 82 90 86 92 98 97 100 89 72 71 76 71 70 73 71 68 57 44 36 36 39 41 38 37
18 9 73 87 94 100 99 99 98 100 97 90 96 96 94 85 68 72 76 74 75 67 97 99 97 97 100 96 86 81 75 72 65 70 78 71 71 61 48 38 30 36 39 36 35
23 11 73 82 92 96 99 98 98 98 98 96 98 97 96 85 64 80 75 71 66 64 99 90 89 100 100 99 100 84 81 67 66 79 82 78 58 53 43 36 33 30 36 36 32
51 21 39 84 68 95 99 98 98 98 98 93 98 93 93 93 71 66 87 73 89 92 99 99 98 100 96 99 98 80 84 83 82 90 70 71 50 52 43 39 33 30 29 31 32
68 29 19 17 62 82 99 98 98 98 95 86 92 98 85 77 80 65 85 87 78 96 98 82 99 100 99 96 96 79 82 87 91 91 85 69 58 44 41 40 36 29 31 37 35
72 26 19 23 35 62 97 98 98 98 92 92 97 96 92 83 76 80 95 89 91 97 98 88 98 99 99 98 97 94 90 92 90 83 68 58 55 40 37 34 34 37 41 37 38
73 21 19 26 45 68 94 98 98 97 93 98 95 97 97 67 91 92 89 80 93 98 96 97 99 99 99 100 99 90 93 98 94 83 59 54 55 40 37 35 35 37 37 37 37
72 22 19 38 63 82 98 98 98 97 95 95 96 98 98 98 96 90 100 98 96 99 77 97 100 100 99 96 97 86 83 59 62 58 46 56 48 36 36 34 31 33 38 37 37
71 23 24 56 66 86 98 98 92 97 97 96 98 97 100 98 91 97 96 90 90 99 92 97 99 99 97 98 85 99 98 73 60 61 49 46 48 39 43 38 33 38 34 37 38
76 25 45 66 75 100 98 97 97 98 98 100 86 94 84 88 80 97 86 77 90 94 100 92 99 100 100 98 98 98 93 85 73 60 56 45 47 38 41 37 39 37 36 38 40
78 29 60 86 100 100 98 98 98 99 94 84 81 84 82 85 76 89 80 87 62 86 98 91 88 98 100 98 96 97 98 93 68 60 44 41 38 40 37 33 36 37 36 36 39
68 48 75 100 100 99 98 98 98 97 77 74 71 79 74 88 93 89 77 91 66 85 96 80 73 98 96 93 89 86 80 79 67 64 57 50 38 39 36 32 35 36 37 38 42
54 74 98 100 97 99 98 98 99 98 86 85 73 82 54 74 81 96 88 62 60 81 86 83 72 82 96 89 88 97 92 86 66 56 54 48 42 39 39 36 35 37 38 40 42
45 98 99 100 100 99 99 99 99 83 93 99 78 81 53 53 75 70 96 72 89 85 82 81 75 56 60 64 73 81 83 80 79 67 55 51 44 43 41 38 38 40 38 39 42
42 86 96 98 95 100 99 99 99 99 97 100 89 74 72 82 86 93 93 91 88 85 82 92 71 73 66 60 61 64 65 66 74 68 58 51 54 48 48 44 42 45 47 44 43
55 58 90 87 76 91 100 98 99 100 98 99 99 85 86 67 62 83 69 91 88 96 81 90 78 66 66 66 65 63 58 57 60 68 61 56 54 52 51 50 43 50 52 50 46
74 35 74 73 67 86 100 99 99 100 98 99 99 98 98 85 74 60 77 88 78 81 79 95 82 73 61 60 69 68 65 59 55 57 54 57 46 55 44 41 46 48 53 51 54

GFSSW_700_rhum_003.txt.gz
RH
50 50 52 50 47 46 47 48 51 46 61 90 63 96 91 95 95 79 56 38 42 50 56 54 43 29 70 70 71 59 69 58 50 50 46 47 51 51 50 32 38 40 38 45 42
53 52 52 54 55 51 49 48 47 48 48 53 60 100 99 100 96 97 68 68 60 54 55 61 58 36 71 80 95 82 68 58 52 49 51 49 55 60 54 47 49 47 42 41 42
50 50 55 58 55 54 53 53 52 50 48 49 49 52 99 100 100 92 78 75 76 60 49 59 62 70 98 97 91 89 71 61 58 56 60 58 60 61 64 32 44 49 47 48 47
44 49 65 68 63 62 62 60 57 55 49 46 50 51 51 56 86 94 75 49 61 54 64 55 66 65 95 99 92 81 78 71 62 64 72 66 63 63 67 56 57 55 47 54 41
36 48 67 75 75 75 71 65 60 58 51 42 40 42 47 55 74 89 75 51 55 63 66 61 58 67 85 100 97 87 76 71 72 68 73 68 58 58 63 58 31 35 47 35 39
27 42 63 77 82 79 80 70 61 60 51 41 42 58 50 71 52 82 85 66 64 54 60 69 62 66 94 97 95 90 85 77 72 73 72 74 68 67 58 53 58 54 38 30 35
18 32 52 73 83 75 82 76 73 67 54 42 43 68 74 51 50 45 53 46 55 74 58 59 79 82 89 90 90 97 88 85 74 70 68 75 71 63 48 61 52 39 32 24 27
16 21 38 61 81 80 92 85 77 71 59 45 61 76 89 58 62 49 47 54 49 44 46 54 82 71 95 87 96 94 94 91 79 74 70 79 67 56 53 52 41 23 16 22 18
31 16 25 44 87 89 99 99 94 84 68 69 71 79 92 54 56 59 58 53 54 54 51 56 59 73 77 99 89 100 95 96 80 70 70 74 64 52 52 50 35 41 42 35 27
44 21 18 28 79 95 100 100 99 99 99 88 95 95 87 62 53 55 56 55 60 77 64 60 68 74 77 99 98 95 98 82 84 66 71 68 66 59 49 50 44 41 42 38 32
50 38 19 16 52 76 83 99 99 100 92 81 80 77 82 70 58 55 53 53 66 96 92 87 82 98 74 70 97 96 89 74 75 63 63 67 61 52 53 52 51 46 39 39 35
56 54 26 14 44 73 91 98 99 99 100 95 98 91 89 84 82 69 55 62 94 99 100 98 97 85 70 73 98 90 83 68 65 67 66 59 56 53 56 57 54 46 36 38 37
61 66 47 21 37 75 90 98 100 100 98 98 99 98 98 97 95 84 63 65 100 99 95 97 70 68 91 89 99 92 94 76 69 70 70 64 64 62 60 58 48 39 35 38 37
66 70 75 38 25 56 60 90 100 99 98 95 79 94 99 98 94 90 81 79 94 97 92 96 93 99 92 96 99 96 79 66 68 70 60 65 41 39 46 48 39 38 35 34 37
70 70 74 42 27 25 47 67 100 99 96 92 97 96 92 98 96 71 60 82 95 99 94 85 81 84 99 94 99 98 99 75 82 72 83 75 60 44 43 42 36 36 35 32 34
72 73 75 33 24 32 44 83 100 98 93 95 98 93 95 97 91 90 70 66 100 98 92 78 77 99 96 98 96 93 92 91 85 71 63 52 53 36 40 40 41 34 35 34 36
80 75 81 28 29 55 70 99 98 97 91 98 95 96 96 94 97 92 100 96 97 98 98 95 93 99 94 100 100 100 100 86 72 70 50 46 47 40 36 30 36 32 36 37 40
96 82 82 35 41 84 87 100 98 94 88 94 97 97 97 97 96 94 100 99 96 88 99 92 92 97 90 98 98 96 97 52 58 54 41 52 47 39 40 39 35 37 39 41 41
100 94 79 33 56 89 100 100 97 98 93 97 98 98 97 96 72 77 94 97 89 81 99 95 92 97 99 100 91 96 95 63 50 46 40 46 43 39 32 38 35 33 38 39 39
100 99 91 34 69 100 100 98 98 97 98 97 90 90 95 92 73 87 96 86 81 93 100 98 95 90 98 100 100 100 77 68 57 51 46 38 35 36 43 42 40 39 36 38 38
100 99 81 67 91 100 98 98 99 97 99 94 76 77 74 69 73 81 75 63 69 85 97 99 98 100 100 99 97 92 96 73 51 48 39 40 36 40 41 35 36 38 40 37 38
100 100 81 89 100 98 98 98 98 98 99 92 73 64 57 60 71 76 63 65 60 78 98 99 99 100 99 98 92 87 82 66 51 55 47 43 38 38 36 30 29 35 37 40 38
100 99 78 99 99 98 99 98 98 98 99 82 76 70 63 64 68 75 70 60 84 71 99 96 100 100 100 94 99 97 79 72 63 54 47 39 38 40 36 34 33 36 38 38 38
100 90 100 100 98 100 99 98 98 98 95 78 84 85 83 75 71 78 82 72 68 74 100 99 94 67 55 58 84 93 88 70 62 55 47 46 41 40 35 35 33 33 37 38 39
99 98 99 98 96 98 99 98 99 100 82 89 98 93 89 73 74 86 81 86 77 79 98 98 79 64 58 57 70 70 77 82 77 68 55 47 48 45 45 48 46 43 38 40 45
99 96 87 100 100 98 99 98 98 99 100 98 98 96 97 76 64 75 76 80 97 92 83 98 87 71 67 64 62 63 67 72 71 70 63 54 50 49 50 50 47 48 49 44 52
99 100 65 81 95 94 85 93 99 100 99 94 96 98 94 87 83 88 77 85 91 77 80 100 97 68 60 68 68 64 60 64 66 66 61 60 56 55 52 51 51 46 45 46 45

GFSSW_700_rhum_006.txt.gz
RH
28 44 50 51 49 48 46 47 49 50 50 47 44 58 89 91 92 75 69 70 50 43 44 48 56 51 35 35 67 90 80 75 66 59 51 45 45 45 48 36 30 40 41 45 44
32 50 51 51 55 53 52 49 48 49 48 48 47 56 96 66 94 92 61 85 71 58 38 34 56 58 49 31 58 82 90 62 61 55 49 48 47 48 56 60 28 46 46 46 42
29 44 51 57 61 57 55 52 51 53 53 52 48 46 53 75 98 74 91 60 58 63 64 49 52 64 68 51 74 80 76 66 62 56 52 51 53 51 57 60 44 40 51 46 47
24 34 48 64 70 71 70 67 66 63 60 59 54 50 48 52 78 100 88 56 48 53 71 66 54 72 71 88 85 96 87 82 58 60 58 57 55 54 60 60 62 55 54 51 50
33 24 40 57 73 74 70 65 59 63 62 61 56 51 48 46 45 58 72 54 42 47 58 64 63 64 75 86 97 92 92 82 76 65 62 66 62 52 57 48 46 45 33 33 43
38 22 30 48 68 74 71 61 62 64 64 60 56 49 44 42 44 45 44 51 63 52 62 71 87 76 88 93 91 96 83 77 78 71 69 67 67 71 47 57 41 51 59 56 47
39 32 20 37 55 73 67 62 61 65 68 66 61 51 45 44 53 50 55 49 56 61 71 96 76 100 100 89 97 100 96 86 76 77 69 70 70 70 44 53 40 58 60 43 31
41 42 19 22 38 60 77 80 61 75 82 73 62 54 53 46 48 37 48 44 46 48 58 66 98 99 97 100 97 93 89 95 70 79 71 71 69 64 57 54 57 53 43 30 31
35 45 37 17 24 38 72 88 87 84 95 94 70 65 57 50 48 54 55 56 55 53 49 50 70 76 99 96 96 98 96 80 78 80 78 72 67 63 52 55 52 49 40 42 34
30 48 52 30 19 23 46 89 88 84 99 100 93 82 70 59 57 59 62 62 58 52 57 64 71 73 74 98 96 99 100 91 83 66 80 67 68 62 55 52 53 46 40 41 37
32 45 58 47 23 20 26 53 72 85 99 93 97 92 89 70 64 62 61 57 64 58 55 75 79 71 60 54 56 88 91 88 76 80 73 73 67 68 59 56 49 52 44 43 31
37 38 64 63 36 26 17 40 78 94 99 98 99 99 100 89 83 74 67 63 56 58 64 96 89 34 53 73 90 83 100 89 83 78 74 68 65 59 62 57 52 52 51 45 29
37 37 70 74 63 39 26 48 87 87 100 98 96 100 97 99 94 85 81 73 60 72 94 86 30 63 91 93 96 93 92 94 91 71 75 68 64 59 55 50 51 54 55 48 33
35 39 70 77 76 59 35 48 61 82 99 95 88 93 98 99 99 90 98 93 82 86 89 96 65 82 95 94 85 87 75 98 88 90 84 67 60 48 43 53 54 59 55 46 30
37 42 69 84 80 63 41 36 40 92 97 95 98 92 90 93 96 89 94 98 91 83 91 80 81 88 85 83 80 83 78 94 76 100 85 66 61 35 40 48 56 50 54 47 37
69 53 76 89 83 52 38 39 62 99 93 90 96 77 92 80 97 96 84 96 91 89 97 88 86 84 74 73 75 79 88 88 100 100 97 86 62 48 46 44 47 44 41 38 38
94 80 94 95 91 46 44 66 99 98 85 98 91 88 89 97 99 97 96 99 99 99 98 94 70 92 73 85 93 98 99 96 100 99 82 61 62 40 40 42 41 42 41 38 38
100 97 100 100 98 60 65 98 99 83 87 92 94 97 98 96 97 96 98 96 93 87 99 95 76 67 77 71 89 98 92 100 96 98 58 47 50 45 44 39 32 35 34 36 38
100 100 100 99 100 86 81 100 89 98 96 97 98 99 100 97 98 95 98 97 86 90 98 95 93 96 66 84 100 98 100 86 100 40 52 51 44 42 40 41 39 32 33 36 37
100 100 99 99 99 100 96 99 100 98 97 98 97 86 99 97 94 89 89 83 75 84 87 78 97 72 85 99 98 97 76 99 96 56 65 51 44 39 32 32 38 34 32 36 42
100 100 98 99 98 99 95 100 100 98 98 98 75 89 86 83 72 70 71 68 78 84 97 96 96 100 99 98 95 100 99 96 92 48 56 61 44 39 40 40 39 39 36 36 38
98 100 98 100 99 98 99 98 98 98 98 97 89 86 64 91 80 72 81 92 75 82 94 95 98 99 96 92 93 92 99 90 54 56 46 45 45 41 39 34 35 37 38 39 38
99 100 99 99 99 98 93 99 98 98 98 98 71 71 62 59 62 62 84 74 73 77 84 97 99 99 90 100 99 100 97 74 76 57 49 46 46 42 36 33 32 36 40 42 44
99 99 99 99 93 99 100 98 98 98 98 98 73 76 69 62 58 89 70 68 60 65 81 99 97 99 93 85 79 92 74 59 72 60 48 44 44 44 38 35 33 32 37 40 42
99 98 98 98 94 98 99 99 99 99 98 91 78 86 76 75 70 62 74 69 71 66 91 98 99 99 68 65 74 76 68 64 69 61 55 45 44 41 42 43 43 44 42 32 40
100 99 98 96 97 100 90 98 98 98 99 91 71 83 78 80 68 71 70 81 72 83 99 97 90 70 65 67 72 74 68 63 64 63 60 51 50 48 49 49 49 48 48 47 38
99 99 100 98 87 97 95 98 98 99 98 99 88 88 92 80 93 77 75 67 89 82 80 81 80 78 66 63 63 63 64 68 66 68 70 68 48 54 52 52 53 51 46 39 47

GFSSW_700_rhum_009.txt.gz
RH
26 24 30 48 47 45 44 45 43 43 42 43 40 41 42 52 52 58 50 57 48 45 34 28 38 45 50 43 39 66 75 62 54 52 37 45 54 45 45 44 37 35 43 46 46
30 25 30 46 49 48 52 50 50 47 46 45 45 49 75 55 76 55 58 62 66 69 63 46 32 44 54 51 42 62 67 56 48 48 45 43 52 49 47 46 48 30 38 51 49
26 30 27 37 46 58 60 53 50 52 51 50 48 48 49 69 80 45 51 56 66 64 65 60 51 43 46 52 46 45 54 46 40 54 50 54 53 53 50 49 48 47 47 55 50
27 31 26 29 43 64 70 68 63 62 64 62 58 54 54 77 75 66 49 46 59 68 80 74 67 58 56 60 51 47 46 62 43 48 50 55 60 54 53 50 46 50 47 49 55
24 33 33 24 40 64 70 72 65 61 59 58 56 58 56 54 47 53 50 46 46 42 40 64 77 73 63 67 70 63 55 69 49 46 53 61 65 64 58 52 52 39 44 36 40
22 32 38 23 30 56 67 73 54 54 58 61 61 59 56 49 51 51 48 46 41 40 46 44 60 73 76 74 89 94 86 72 77 80 70 61 63 68 53 51 49 43 30 46 50
25 24 40 35 22 41 59 67 63 53 56 60 60 63 56 52 56 55 56 50 46 43 52 56 84 90 88 80 85 97 91 82 66 76 82 78 72 65 64 52 50 41 39 62 64
28 26 36 43 23 24 41 53 55 70 69 61 61 68 48 54 55 49 52 44 50 52 77 79 98 89 97 92 76 83 84 84 85 75 71 80 74 69 59 58 58 56 50 54 52
30 31 31 46 41 18 23 35 49 68 79 74 51 68 50 49 53 55 55 54 53 46 60 62 82 98 88 93 91 87 99 96 86 78 80 76 74 66 68 62 60 54 52 46 44
31 34 33 47 53 36 20 21 32 60 80 83 67 64 60 64 63 59 59 58 68 62 56 44 48 64 75 95 96 87 86 90 95 69 78 78 74 66 63 56 57 54 49 46 42
28 34 36 38 63 55 30 20 26 38 43 67 83 68 74 84 92 71 66 68 73 75 68 53 58 84 58 62 87 89 80 90 78 85 84 72 71 65 59 60 59 55 54 48 42
26 34 40 41 63 66 48 31 22 35 55 75 72 72 78 98 98 90 78 75 67 71 66 72 75 59 48 46 57 73 91 72 88 88 95 71 71 65 59 59 57 51 51 52 47
28 37 39 45 59 71 68 50 34 46 78 75 42 53 70 98 99 98 96 86 72 68 60 54 67 51 62 73 82 82 84 80 76 69 80 95 86 70 64 70 61 54 56 55 52
92 64 36 44 62 76 72 60 42 55 80 83 64 65 68 99 99 99 99 99 97 90 78 77 61 56 98 88 79 91 67 86 94 92 96 88 85 66 64 69 66 57 52 54 54
100 97 44 51 71 78 77 61 35 43 93 81 81 71 68 78 96 87 99 99 98 96 95 82 82 58 65 49 91 75 72 87 90 88 99 87 96 68 60 68 61 49 52 53 57
100 100 87 52 88 92 79 45 65 79 92 84 80 72 74 72 97 100 98 99 98 98 98 88 86 92 77 59 75 83 94 87 92 92 98 96 98 72 61 50 45 53 57 56 59
97 100 100 100 99 97 70 41 75 93 59 87 82 86 87 94 100 99 99 98 98 98 96 94 80 77 81 79 76 90 96 91 98 97 87 75 91 79 46 38 38 42 53 55 58
99 100 100 100 100 100 65 57 95 66 60 74 84 94 100 100 98 97 99 97 99 97 90 86 89 67 65 79 76 77 78 85 93 83 66 73 99 74 45 40 44 44 45 54 51
98 98 90 99 99 100 90 74 46 68 71 79 88 98 97 99 99 99 96 94 76 80 91 95 93 70 66 52 69 67 97 59 95 73 84 97 95 55 47 43 44 42 42 41 34
99 80 98 98 99 99 100 79 53 57 72 93 98 97 89 97 98 97 93 79 75 66 75 82 97 82 89 92 76 58 65 90 99 98 96 89 65 56 40 41 39 37 38 38 36
99 77 98 97 99 98 99 94 86 74 73 98 98 97 89 91 82 87 64 60 58 65 94 93 97 85 98 89 89 94 99 90 93 94 99 97 54 40 43 40 39 36 32 30 32
99 86 99 99 98 98 97 92 84 71 94 99 98 91 84 95 87 80 68 62 74 92 96 94 98 97 78 84 72 93 99 85 77 84 99 48 47 40 36 33 37 36 34 35 37
98 99 94 99 98 98 93 92 86 87 98 98 98 83 73 85 89 65 64 62 71 93 96 97 97 96 99 99 99 99 96 98 77 76 91 56 48 43 39 36 35 34 39 43 42
95 98 100 99 99 99 94 96 89 93 97 98 98 77 75 70 71 69 69 64 82 96 97 97 98 98 99 95 90 99 95 82 99 100 51 45 42 36 34 32 34 36 37 39 42
91 98 79 97 96 90 99 94 99 99 99 99 99 75 76 72 69 67 64 70 82 78 94 98 95 99 100 100 96 56 80 91 100 83 46 46 42 41 39 35 33 32 36 35 39
80 99 95 95 99 98 99 98 99 96 99 98 98 72 76 79 74 69 64 77 72 85 91 96 97 99 100 92 100 85 93 100 78 54 54 49 42 43 42 41 49 49 44 44 39
86 84 98 89 98 98 91 87 75 98 98 96 100 93 86 75 78 72 78 74 74 80 83 94 98 99 88 98 98 90 83 66 60 60 49 52 53 52 48 50 50 52 51 41 34

GFSSW_700_rhum_012.txt.gz
RH
25 27 28 25 31 44 46 45 45 44 42 40 36 33 32 36 42 29 39 57 47 44 36 21 26 40 43 44 41 42 64 58 47 43 28 37 51 51 52 47 44 42 42 47 49
26 28 32 26 36 45 45 44 50 48 47 43 44 45 44 46 48 30 54 72 64 58 56 51 42 29 35 45 47 45 53 48 30 32 29 30 46 53 53 50 48 44 38 44 47
24 29 32 30 31 39 45 50 51 51 50 45 44 45 46 46 51 40 61 62 68 52 57 56 63 53 35 41 49 46 43 44 36 34 36 32 38 44 55 55 51 49 45 54 52
21 23 32 35 28 32 44 59 58 62 56 52 52 55 54 51 53 50 50 51 52 79 76 65 60 56 52 36 39 48 42 43 38 40 41 42 37 49 54 55 58 54 46 50 56
24 23 24 35 33 27 39 60 62 64 62 60 60 63 58 53 49 51 51 50 53 54 59 46 54 71 56 52 43 57 47 44 41 40 50 50 50 56 55 58 62 59 55 48 51
24 26 25 29 39 26 33 59 65 62 50 52 56 59 59 53 58 57 50 46 50 55 55 50 45 51 72 67 64 56 71 60 54 45 45 52 49 57 52 56 59 63 55 48 40
27 26 30 26 40 35 25 43 62 67 56 51 54 55 46 58 54 55 55 51 50 49 50 51 50 66 82 77 72 73 69 75 60 53 67 70 60 50 58 56 50 52 49 38 37
27 25 32 32 36 44 26 27 45 58 55 64 68 60 42 49 54 49 52 50 51 55 60 73 66 70 95 97 92 83 80 83 65 76 66 81 51 48 60 63 56 50 46 41 50
20 24 31 36 37 49 42 21 27 36 45 51 54 59 44 35 47 54 53 50 50 52 64 100 100 91 94 98 97 96 98 95 90 72 84 82 55 53 54 60 60 52 51 56 55
15 23 28 37 40 51 53 36 22 22 27 36 32 38 37 37 57 62 60 55 56 58 55 80 100 100 99 99 96 90 87 75 75 80 76 74 71 74 64 63 63 52 54 57 57
18 25 42 39 43 49 62 53 34 30 23 25 35 30 36 46 47 64 76 65 63 75 73 60 70 90 59 60 77 85 88 88 86 94 83 83 86 81 74 60 60 57 51 57 50
58 74 71 50 46 49 59 62 46 34 31 28 30 33 55 74 72 69 80 80 68 71 84 93 88 74 55 45 58 79 95 88 86 80 86 86 87 86 65 68 66 55 60 61 48
87 94 90 93 55 45 58 71 60 51 47 42 40 38 41 73 100 99 96 96 93 81 100 97 77 56 57 54 67 60 66 75 82 44 71 85 80 77 62 63 66 56 60 62 56
93 78 100 100 67 53 56 72 68 54 51 45 40 48 54 62 99 94 92 99 100 92 81 100 84 69 68 83 71 83 69 72 77 94 95 69 82 73 62 53 61 57 58 60 59
97 87 99 100 77 59 65 75 71 56 63 55 63 59 63 72 74 74 95 100 99 93 92 88 78 68 66 60 74 88 80 76 83 96 92 74 96 80 68 72 57 48 56 58 64
98 96 90 100 68 75 81 86 72 67 73 60 60 61 68 68 84 87 97 98 99 99 99 98 96 93 75 64 64 95 96 94 93 93 97 73 84 67 62 55 52 55 53 52 67
98 96 80 100 72 94 97 85 68 74 53 72 58 72 79 78 83 94 97 98 98 99 98 98 97 92 82 86 77 81 89 88 99 95 82 61 76 71 59 45 50 50 51 60 66
98 90 93 83 100 99 99 81 83 54 52 63 64 81 85 84 94 89 98 97 91 96 97 99 96 96 76 74 80 82 86 79 91 99 71 64 83 72 43 38 52 48 53 54 54
95 98 98 97 98 99 97 90 57 49 52 58 79 100 99 98 95 93 92 99 98 94 98 96 89 65 64 68 72 81 97 54 88 75 80 68 70 40 30 32 49 50 46 44 53
99 98 97 99 96 99 98 85 70 58 56 68 75 88 89 71 88 98 98 64 76 69 71 86 86 65 76 88 97 79 64 95 91 99 90 79 86 60 40 45 41 43 43 41 49
98 97 96 95 100 100 98 86 86 85 81 78 80 95 84 86 90 87 71 60 66 71 75 80 92 91 89 88 80 100 92 79 71 68 98 82 75 44 41 47 48 48 45 44 47
98 98 94 99 98 98 95 88 99 92 94 89 93 99 91 87 88 92 78 63 63 62 76 79 98 96 83 87 95 87 74 86 79 66 73 99 69 60 41 40 43 48 39 41 44
99 97 99 99 98 99 93 96 100 99 100 100 94 97 86 83 96 81 78 62 66 93 95 96 98 96 88 95 96 98 90 73 74 68 81 98 71 64 52 48 42 39 37 41 42
98 98 99 99 98 98 86 99 100 99 100 98 98 96 81 95 89 82 73 68 69 91 96 99 96 94 86 98 88 100 93 89 91 95 80 86 84 64 45 42 39 41 41 41 45
95 99 83 98 98 97 99 100 99 100 100 97 98 98 84 85 82 74 68 70 74 93 96 98 97 98 96 94 99 98 96 97 99 93 85 69 58 62 49 35 32 35 42 46 49
100 98 100 76 96 100 99 99 99 100 97 97 98 99 99 81 72 73 74 70 79 81 97 98 94 98 100 89 98 100 89 98 98 100 96 81 83 68 34 33 33 35 34 36 44
95 99 91 81 88 98 91 87 98 100 88 98 97 100 87 71 70 74 80 89 98 92 98 98 98 99 99 100 100 99 92 87 97 97 99 99 75 39 37 41 49 50 47 39 37

GFSSW_700_rhum_015.txt.gz
RH
22 21 28 34 28 28 33 45 48 46 47 46 42 37 35 27 23 24 26 30 30 34 26 19 26 36 35 38 43 41 58 45 38 34 25 26 35 49 49 49 48 47 45 40 45
26 21 22 33 32 31 37 45 50 50 52 48 49 47 48 45 40 34 55 45 40 39 40 43 38 28 31 43 48 46 47 44 35 35 30 32 36 50 51 52 51 49 49 46 44
29 24 21 27 35 31 40 42 48 59 56 51 52 51 50 46 43 40 60 49 44 47 49 45 55 59 46 34 46 49 40 42 39 38 39 35 35 41 49 53 51 57 56 52 43
31 28 25 24 33 35 33 38 48 63 69 59 54 52 51 50 51 47 47 47 48 46 53 49 56 62 64 59 42 52 45 48 40 42 46 39 35 37 42 46 56 60 59 55 52
28 32 26 28 29 38 32 34 48 68 70 70 68 64 62 58 52 54 52 52 49 46 48 75 70 72 72 63 54 50 39 49 53 45 46 48 41 40 38 45 54 58 60 60 57
14 30 31 28 30 38 38 30 44 66 72 65 62 60 59 55 55 53 51 53 55 52 52 68 52 57 58 67 75 58 60 52 50 47 48 49 44 44 35 40 54 58 61 62 60
12 18 32 28 33 36 43 32 35 60 70 66 57 54 50 62 51 51 50 52 54 54 52 52 51 57 64 65 75 71 60 61 61 48 49 49 39 35 37 35 42 56 59 60 56
35 13 23 29 34 37 44 42 29 43 62 70 70 66 51 52 42 43 52 51 53 55 55 54 68 64 77 97 98 97 85 70 51 53 57 54 36 59 37 33 36 49 54 60 53
90 83 26 28 30 42 44 52 33 30 46 60 64 54 55 57 52 43 44 55 58 55 56 62 71 97 99 99 98 98 99 91 90 67 62 59 47 46 37 48 34 35 42 46 46
98 96 97 79 45 45 48 56 46 28 31 42 35 42 39 43 48 57 55 55 57 57 60 59 87 100 99 98 96 98 99 93 83 74 75 74 70 83 69 64 48 46 50 43 46
99 88 81 98 61 51 52 52 46 40 34 29 39 34 44 46 46 57 54 54 63 64 61 63 80 97 94 98 99 97 89 98 97 92 79 67 77 73 58 60 59 43 55 51 55
99 98 90 80 100 85 61 54 54 49 45 38 33 33 27 26 38 58 63 66 72 69 66 76 71 64 75 89 90 87 93 91 91 85 82 76 60 63 61 58 58 48 46 46 53
80 99 97 88 88 100 73 63 66 64 55 50 48 45 41 51 53 58 60 74 83 88 81 75 74 62 72 64 66 70 78 82 77 56 61 75 58 46 45 50 50 43 44 41 46
82 99 98 95 99 100 94 76 74 69 74 54 48 53 44 54 68 52 56 89 99 99 98 99 98 92 76 75 72 90 78 70 70 82 94 60 61 42 44 32 37 42 45 48 56
98 100 98 99 72 100 62 89 80 78 77 51 55 54 65 72 66 72 77 100 100 100 100 90 83 72 75 72 67 97 80 87 85 83 86 75 95 68 50 31 37 49 48 44 55
98 98 98 98 98 93 94 94 86 76 78 70 67 69 72 70 71 76 80 100 99 100 98 94 96 97 84 76 74 89 87 93 100 100 96 86 86 56 46 37 26 45 45 40 51
78 97 98 95 90 98 100 88 93 80 58 64 56 59 60 83 91 94 94 95 99 100 99 99 98 98 93 87 78 94 98 97 98 97 84 63 73 60 44 51 33 22 40 44 40
94 95 98 98 100 99 98 96 80 62 55 57 58 69 67 78 81 90 99 97 100 99 98 98 99 83 94 84 79 85 82 91 91 94 83 55 71 52 40 28 19 33 36 50 49
81 98 98 98 98 100 94 100 73 60 54 52 64 96 96 100 98 97 100 100 87 91 99 98 92 76 71 80 95 98 98 69 84 82 97 69 57 49 31 28 26 22 35 41 52
84 96 97 99 98 99 100 90 74 58 54 57 57 65 99 100 98 90 77 67 82 81 96 93 95 77 71 76 90 96 83 96 98 96 90 65 77 56 38 27 19 24 30 40 44
92 96 97 98 100 99 99 89 77 71 65 70 71 76 98 85 76 78 70 58 60 56 76 100 100 82 86 83 63 95 100 97 95 78 91 85 48 43 40 43 37 29 26 49 47
84 95 98 98 98 99 99 84 81 79 84 93 85 90 100 94 88 85 65 63 60 64 76 72 100 100 81 69 84 76 70 90 95 81 71 72 71 51 58 61 38 46 54 45 50
84 94 98 100 98 98 87 86 87 82 94 96 93 94 99 95 92 76 79 69 77 60 68 79 97 96 93 97 98 97 94 94 72 82 72 70 46 32 56 62 62 61 58 44 40
89 98 98 98 98 93 80 85 93 86 94 100 97 99 99 98 84 83 77 72 69 64 80 94 97 95 90 93 97 98 100 92 99 85 78 80 60 45 57 70 64 66 51 48 42
86 98 88 97 98 92 87 94 88 95 98 98 99 99 98 98 97 85 74 72 84 96 97 98 97 98 97 97 98 97 96 88 99 65 78 63 82 71 78 66 67 57 50 44 46
98 98 94 95 84 89 94 89 90 98 96 98 98 98 99 96 83 75 73 79 87 92 98 98 98 98 92 98 100 99 97 100 75 82 80 78 73 51 42 63 52 49 48 46 45
99 98 85 95 98 100 90 86 92 99 98 100 99 100 96 99 98 77 77 82 99 94 99 99 98 98 98 100 99 99 96 99 93 85 82 90 54 71 53 57 48 44 45 46 48

GFSSW_700_rhum_018.txt.gz
RH
24 26 25 22 21 28 30 32 41 49 49 51 48 43 38 34 29 23 23 20 16 14 11 12 22 31 30 33 42 44 56 44 37 34 28 27 30 35 45 49 44 45 46 46 42
20 24 28 25 23 24 32 31 45 53 52 53 57 52 49 48 45 30 57 33 32 30 32 34 24 20 25 36 48 49 52 42 38 36 34 34 37 41 44 51 50 50 49 48 48
13 20 30 29 26 25 30 32 38 49 58 64 62 60 55 50 50 40 55 45 44 45 44 47 45 48 42 28 39 54 47 40 38 36 37 34 35 39 46 53 53 54 55 58 53
14 54 24 32 28 26 31 34 33 42 60 74 71 60 57 54 56 49 53 56 60 83 72 70 62 52 54 57 48 44 36 40 40 42 41 37 36 34 38 44 52 54 57 58 58
67 28 76 30 32 29 32 37 33 34 62 74 75 72 68 57 51 57 58 55 52 72 82 75 77 76 62 61 60 65 52 47 45 45 40 41 38 34 32 34 41 46 56 58 59
99 75 72 68 35 30 34 34 38 32 48 74 76 68 67 61 65 60 59 58 59 59 60 58 74 94 82 70 69 65 53 52 50 48 43 38 33 42 22 30 35 39 52 60 59
99 98 80 97 48 33 34 35 42 34 41 73 76 62 55 67 60 57 54 57 59 62 81 85 90 66 53 52 56 51 51 53 51 41 39 38 31 26 25 26 29 35 43 58 61
99 94 92 73 87 45 35 40 45 39 34 60 81 77 67 59 53 53 51 53 57 60 60 62 67 68 61 56 77 92 98 78 53 46 47 50 30 33 45 31 23 28 34 47 58
94 99 100 80 87 72 43 48 48 47 36 43 64 73 67 60 65 64 51 45 58 58 60 62 59 59 65 70 78 85 95 96 95 88 75 66 60 44 38 33 28 25 26 34 45
35 97 99 92 87 78 82 62 56 53 39 38 35 51 52 55 52 55 51 47 51 58 62 61 66 85 98 98 95 81 92 94 94 95 71 64 80 56 46 46 34 30 29 26 33
11 53 70 98 88 99 99 88 74 58 49 38 39 38 35 38 46 46 48 57 57 60 58 61 74 100 97 95 99 92 90 93 98 94 91 72 59 48 51 50 37 29 30 32 31
8 37 97 100 98 100 98 94 68 61 51 47 42 37 31 31 40 49 49 54 56 58 64 74 66 64 73 94 99 96 95 99 94 71 57 53 41 41 40 44 34 33 26 28 36
16 41 99 98 99 99 98 90 76 71 65 54 47 42 37 38 41 44 51 65 75 76 75 74 68 71 70 76 94 95 97 98 75 54 51 57 34 30 25 25 26 28 26 24 29
83 10 100 97 98 98 86 99 75 82 70 58 48 49 47 52 54 49 55 75 93 87 89 91 81 86 88 86 84 81 75 68 73 89 98 61 69 46 38 28 21 20 21 23 27
84 17 95 96 98 98 80 98 96 88 93 54 62 57 54 61 66 57 63 96 100 100 94 80 80 78 87 83 92 98 80 77 90 93 94 96 96 61 46 35 26 20 19 18 23
67 66 100 100 98 98 97 98 99 84 89 72 66 77 92 85 72 76 74 98 100 99 98 96 93 100 97 86 83 95 96 94 97 97 97 86 90 55 48 33 28 24 22 20 21
73 58 98 100 98 98 96 100 94 88 63 68 77 82 100 98 100 92 86 99 98 100 99 99 98 100 97 93 91 97 98 97 98 97 84 65 80 63 43 39 37 29 18 18 36
78 79 96 97 98 98 96 95 90 70 64 70 65 76 93 74 92 100 98 100 100 100 98 93 88 74 75 86 87 90 86 93 94 94 86 65 76 56 44 37 39 30 21 21 36
81 86 94 98 98 98 99 97 72 65 61 56 72 76 83 80 85 100 99 100 100 100 98 90 89 78 70 71 91 99 98 71 92 95 97 66 57 46 42 28 30 22 22 20 27
90 90 96 96 98 98 99 81 76 70 61 61 51 55 73 92 92 100 83 55 79 86 95 90 96 84 75 86 86 92 95 98 98 96 92 72 60 59 47 60 51 43 40 21 26
100 89 91 82 98 98 98 89 84 72 60 61 58 58 79 95 100 98 66 52 52 54 74 100 98 91 89 88 73 92 100 99 92 96 91 85 49 32 40 58 55 48 30 35 25
98 86 85 96 97 98 100 90 81 74 70 68 72 74 81 99 91 87 76 57 63 60 62 89 97 98 82 78 69 79 67 60 87 84 90 70 56 49 56 54 50 73 57 33 32
95 76 97 96 98 98 98 97 89 81 78 76 86 87 93 99 96 90 86 64 71 79 67 68 98 98 91 90 99 96 88 97 88 84 76 77 56 40 31 40 68 81 77 73 59
99 87 98 97 98 98 100 93 89 87 91 94 99 95 99 100 100 86 77 77 80 76 78 85 86 93 94 88 96 97 96 97 97 96 80 82 72 51 40 38 78 84 87 76 66
93 88 96 98 99 100 89 80 86 89 90 91 99 91 99 99 97 99 81 70 85 88 97 97 96 95 95 98 98 97 97 95 96 87 91 69 71 62 47 38 84 82 87 71 63
95 98 96 84 94 97 85 77 82 84 86 96 94 86 99 99 98 90 74 71 86 92 97 97 97 99 97 97 99 99 99 99 98 99 100 90 73 54 31 58 95 95 74 64 59
99 98 98 92 97 94 86 84 84 88 87 98 95 99 96 96 98 94 96 88 89 94 100 100 99 98 88 95 98 99 96 98 100 89 94 97 27 55 87 97 96 84 67 60 54

GFSSW_700_rhum_021.txt.gz
RH
51 28 29 29 28 25 25 30 30 29 36 46 50 45 39 38 30 18 22 18 12 11 11 11 17 28 28 31 36 42 46 43 35 34 32 30 32 31 37 43 48 42 46 44 44
54 39 89 35 32 28 26 30 32 31 40 50 53 54 50 48 44 26 56 34 23 20 19 14 13 19 30 35 41 44 43 32 30 33 37 38 35 35 38 38 49 45 45 44 46
90 60 44 84 37 32 28 27 34 34 39 48 54 60 59 56 55 43 67 44 40 80 44 40 36 35 24 23 44 51 36 28 27 30 36 33 34 35 33 39 44 51 49 49 48
100 91 76 60 67 38 32 29 33 35 39 43 57 66 60 59 58 54 52 50 54 88 84 60 52 50 45 40 40 43 31 35 36 40 41 33 33 30 30 28 42 55 54 55 51
100 97 94 76 80 59 38 31 29 38 37 47 63 71 71 58 54 60 59 60 62 77 95 86 69 61 62 54 55 61 47 42 34 32 32 33 26 28 22 24 32 50 55 55 58
100 54 95 96 75 83 49 35 32 40 37 46 64 71 72 66 68 62 57 62 64 60 92 86 97 85 81 71 75 66 54 52 48 45 44 36 24 36 16 20 24 32 48 49 55
29 82 100 100 96 86 77 41 38 41 40 40 55 74 64 71 64 62 62 58 61 62 65 80 81 89 87 80 83 76 66 60 46 43 50 46 37 32 25 27 20 22 30 38 44
2 24 97 99 100 86 84 64 48 47 44 38 47 68 70 62 64 64 61 58 60 63 64 84 96 98 93 71 69 73 68 57 49 42 42 44 36 27 30 28 25 23 21 28 34
3 4 85 99 100 94 90 82 66 55 58 50 40 48 68 67 68 59 54 54 60 65 69 72 71 78 77 72 67 62 74 73 64 59 63 63 60 40 35 30 27 26 23 20 26
4 4 5 97 99 98 99 94 86 68 70 95 46 43 47 60 62 68 70 66 58 63 71 68 72 72 72 65 72 65 77 76 75 72 66 63 61 44 38 40 30 28 27 26 21
77 22 4 71 98 99 99 100 98 82 68 46 45 48 41 43 44 51 55 63 61 64 67 71 75 77 61 71 75 84 93 93 94 88 78 62 51 48 40 36 30 27 24 26 24
96 87 8 4 90 98 98 92 84 60 57 57 50 44 42 42 44 56 54 53 56 57 64 72 70 60 72 93 100 99 99 97 94 88 78 66 39 38 31 29 27 26 26 26 24
76 87 52 4 68 98 98 99 90 82 78 59 50 46 46 44 45 42 53 59 57 61 61 62 67 67 72 80 91 100 100 100 98 85 71 66 46 33 29 27 27 24 23 23 23
95 67 60 24 64 99 98 98 85 79 87 64 52 48 49 46 46 47 47 57 64 65 71 75 68 74 81 86 84 91 86 84 82 95 95 79 70 50 37 35 34 28 21 20 21
99 78 56 54 64 94 98 98 98 85 73 55 59 61 53 57 59 51 57 73 81 80 77 71 75 80 85 79 93 96 96 92 92 95 100 100 99 55 55 42 32 28 26 23 20
91 73 69 64 82 97 98 98 100 84 94 69 64 71 74 81 91 68 66 97 98 99 99 98 97 100 95 89 90 94 89 96 96 97 96 83 90 57 54 46 36 30 31 26 21
100 93 80 68 78 98 98 98 95 78 61 73 77 98 99 100 100 93 99 100 98 99 98 99 95 98 93 100 95 100 97 96 96 97 82 60 84 56 44 42 37 26 22 25 24
80 93 83 55 97 94 98 98 91 69 64 79 81 100 99 98 100 98 100 99 98 99 99 93 81 70 93 65 79 87 89 84 89 85 71 66 83 60 43 45 29 28 31 30 26
95 83 90 63 99 97 97 97 70 63 54 59 100 99 99 100 96 99 98 98 98 98 99 92 99 88 77 80 85 98 100 87 94 85 96 68 56 50 42 35 45 60 57 34 22
100 100 73 97 98 98 98 90 71 62 57 54 72 87 93 92 81 98 88 73 84 95 100 94 90 78 75 80 83 99 98 98 97 96 86 74 78 57 34 41 39 59 52 46 37
91 97 76 96 99 98 97 95 69 66 61 64 57 62 68 66 79 94 83 53 56 54 91 99 99 84 78 73 59 94 98 97 97 94 86 72 49 40 37 35 46 60 45 61 33
98 100 76 96 98 97 97 92 73 68 64 62 58 58 67 75 95 98 74 58 60 63 68 64 100 99 66 54 66 75 86 90 97 77 89 92 66 46 51 47 55 49 45 78 67
97 99 80 88 95 96 97 90 75 73 67 70 71 78 81 87 87 90 84 81 69 70 77 73 97 99 77 84 89 96 82 95 97 98 94 92 59 44 44 50 50 46 44 84 85
98 96 98 99 98 97 90 91 84 82 77 73 76 85 92 98 97 93 81 76 81 76 84 84 89 80 73 71 96 97 97 97 97 97 82 88 75 64 51 44 45 40 47 96 91
96 87 97 97 99 87 89 77 83 82 81 86 94 91 97 98 99 99 85 89 82 85 91 99 97 91 85 89 98 98 98 98 97 85 96 72 77 61 61 57 46 42 63 98 92
100 97 98 90 94 81 84 78 75 76 81 89 87 88 97 97 96 99 88 94 86 76 90 99 94 93 87 93 98 97 97 100 98 99 96 97 82 69 73 64 60 48 88 100 88
95 96 99 94 93 98 96 78 79 88 86 88 92 96 98 98 95 90 94 96 91 100 100 100 100 99 95 97 98 98 99 99 99 100 93 96 42 71 61 58 85 99 99 84 84

GFSSW_700_rhum_024.txt.gz
RH
96 77 62 64 48 32 29 26 27 30 30 30 32 35 33 38 36 18 15 24 13 11 10 11 19 28 27 29 31 40 64 51 50 48 45 29 26 27 31 37 39 41 43 43 42
84 99 87 72 83 54 35 30 28 30 32 36 42 48 50 52 46 30 50 37 25 14 11 10 13 26 35 37 38 42 69 55 56 55 43 46 31 31 28 32 38 44 44 44 43
100 72 97 86 65 81 49 34 30 30 34 38 47 50 54 59 55 39 67 49 41 52 18 14 18 22 31 38 42 54 68 61 38 32 34 36 31 33 33 36 34 47 48 44 45
12 36 54 100 80 81 79 46 32 33 34 38 51 57 61 61 63 48 56 59 74 88 67 32 40 43 38 34 36 44 32 42 36 30 33 31 35 26 29 26 41 38 48 47 45
2 34 98 100 93 85 85 67 40 36 36 37 46 65 73 61 60 55 60 54 64 88 88 79 69 67 68 61 54 49 40 32 32 29 32 36 30 32 34 19 24 31 48 50 49
2 18 70 98 86 99 86 95 60 38 39 38 44 71 82 66 67 62 62 65 67 69 93 90 96 96 84 73 72 64 50 46 41 40 40 35 25 40 14 18 21 24 30 50 52
2 2 14 30 72 82 96 100 87 50 44 40 42 63 76 77 68 66 57 56 70 78 79 92 100 98 98 87 83 73 60 54 43 41 48 46 39 37 22 28 21 18 22 29 52
3 3 2 3 68 98 99 99 95 73 53 43 41 49 76 71 67 66 66 65 68 77 92 94 85 99 91 91 83 66 57 68 54 42 44 48 51 57 27 27 25 26 22 19 25
8 31 4 4 22 89 98 98 97 89 71 53 43 42 69 73 67 64 66 65 66 68 83 86 99 98 99 99 96 86 73 85 80 50 60 56 71 64 38 33 30 28 26 25 20
63 97 56 4 4 99 98 99 99 99 82 92 56 49 50 66 77 66 63 59 61 67 71 75 80 90 79 92 72 68 89 81 74 77 58 68 79 70 44 47 41 35 30 26 24
94 94 87 37 4 87 98 98 99 100 97 96 47 52 42 55 72 76 76 72 72 72 78 74 79 66 64 74 88 86 91 86 85 84 78 48 58 56 46 36 37 34 32 30 26
96 85 83 76 16 51 97 98 98 75 74 56 52 49 48 51 63 64 65 69 73 82 94 81 78 66 75 71 74 96 100 96 89 89 82 71 28 38 27 21 25 28 30 29 28
78 78 94 56 59 56 98 98 99 98 89 66 56 56 54 50 56 61 58 60 68 73 64 70 72 56 62 74 98 99 100 99 99 95 94 88 44 32 36 24 23 25 26 25 24
79 94 97 54 40 37 79 98 99 98 98 75 55 52 53 50 55 49 60 70 70 66 68 83 80 72 76 85 85 92 90 96 99 98 84 90 60 47 46 38 26 24 25 25 25
91 97 90 72 70 54 30 98 98 98 94 68 61 61 55 56 58 54 62 80 80 63 68 76 64 70 92 64 82 95 84 93 99 99 98 84 97 50 52 53 39 30 29 29 28
96 97 77 74 82 68 52 96 98 97 81 74 78 65 62 65 68 63 71 72 89 90 89 97 80 87 88 87 92 90 97 98 100 100 94 72 86 50 43 42 44 34 29 23 26
75 95 96 83 80 72 98 98 97 95 75 83 86 97 94 99 99 86 90 99 95 99 99 97 93 80 93 98 95 97 96 77 88 94 63 51 62 56 43 37 38 32 28 21 23
85 96 90 89 73 70 96 98 96 85 97 92 96 99 100 96 99 100 99 98 99 98 96 96 84 83 97 99 98 100 99 72 64 50 40 59 60 46 44 50 41 47 34 24 18
85 88 93 76 91 94 97 98 94 64 50 83 99 100 98 100 93 100 98 99 99 96 94 100 96 70 63 76 92 95 98 80 93 76 73 53 46 45 45 48 52 49 57 64 56
94 88 97 66 89 100 97 97 75 62 50 65 100 100 99 99 100 97 99 80 98 98 98 95 97 78 76 75 75 94 97 96 98 81 66 42 40 41 43 45 52 65 65 56 50
97 98 98 96 83 96 96 96 72 70 60 67 75 95 100 96 93 98 90 61 52 57 99 100 94 88 84 69 75 91 99 98 91 94 64 50 35 35 42 43 50 48 38 41 50
96 99 99 96 98 99 92 93 69 74 68 66 64 62 77 67 74 83 69 62 56 58 68 78 98 100 88 67 68 84 92 95 96 86 96 92 70 46 45 46 54 58 57 52 48
96 94 95 98 96 96 96 96 78 69 71 65 60 64 66 69 79 82 76 72 67 63 73 89 98 95 71 77 80 99 72 90 98 98 94 88 62 49 48 45 59 52 40 41 39
93 97 98 95 94 89 96 95 93 72 68 69 66 74 79 84 84 90 83 81 80 79 88 92 88 78 71 59 73 98 96 98 98 98 80 84 73 63 68 73 64 60 57 45 40
98 98 100 99 99 97 92 92 76 69 73 73 73 73 85 90 96 94 96 87 79 82 88 94 98 89 66 80 86 85 92 100 98 94 97 62 70 66 69 75 72 70 57 50 40
95 96 93 100 76 81 94 89 80 74 70 63 84 89 87 94 96 94 90 97 92 93 100 99 98 92 84 78 95 98 94 99 100 100 99 100 95 70 85 89 91 95 68 75 70
94 93 98 97 80 83 73 75 76 80 83 84 89 90 91 94 99 99 99 99 96 98 97 98 97 99 97 86 86 98 99 100 99 100 99 99 57 92 89 98 86 83 83 98 100

GFSSW_700_rhum_027.txt.gz
RH
15 63 79 77 68 90 66 43 31 26 26 30 28 29 30 28 25 21 16 15 16 13 11 11 17 23 24 23 28 39 65 49 44 35 34 34 42 45 46 43 45 45 44 47 49
3 58 39 100 88 82 88 72 40 30 27 31 31 35 43 45 42 31 29 26 20 16 12 11 16 22 25 26 33 65 63 49 38 36 39 41 48 45 50 35 42 52 39 36 42
1 2 13 98 68 92 84 94 73 35 30 30 34 40 51 58 69 42 39 45 35 32 17 14 34 38 44 29 66 83 67 49 46 53 54 56 52 56 59 52 43 44 51 46 41
1 1 2 7 89 79 88 95 91 54 33 32 35 42 55 67 85 59 49 58 55 68 61 20 21 34 79 73 46 76 72 65 60 72 56 50 64 63 60 58 50 51 51 62 45
1 1 1 2 12 48 98 89 95 89 43 37 37 42 60 69 74 60 64 58 58 87 88 68 53 82 85 73 73 85 76 68 77 83 68 51 52 67 70 46 33 51 56 54 47
2 1 1 1 5 100 100 96 98 96 74 40 39 44 59 73 81 65 67 65 63 76 88 95 100 98 95 92 87 87 86 78 80 59 43 48 24 65 35 16 20 23 37 34 40
5 2 1 2 5 84 99 100 95 99 95 42 42 50 62 76 76 74 73 74 69 62 90 100 100 99 96 99 97 76 74 76 47 43 71 68 54 30 21 26 25 17 19 19 27
16 7 4 4 3 52 67 91 91 99 97 61 46 48 60 66 80 72 70 68 71 69 75 89 95 98 100 100 92 70 90 80 64 66 76 76 62 48 52 58 51 28 23 22 18
53 25 41 77 32 3 19 83 80 99 100 87 51 44 60 58 76 77 72 73 69 70 90 99 97 100 97 100 94 91 72 64 61 72 77 78 70 59 61 49 56 49 47 45 35
73 78 89 90 95 20 9 60 95 98 99 99 67 52 50 58 74 69 73 81 73 72 78 96 98 94 99 98 76 61 66 65 59 58 74 74 70 65 65 68 72 55 56 59 49
83 75 95 92 86 74 19 65 98 99 98 95 62 58 62 54 78 77 75 83 79 77 77 81 95 97 89 85 76 68 71 64 62 66 70 67 64 62 58 50 43 29 29 30 32
78 84 93 89 65 76 62 99 98 98 98 98 64 54 51 54 76 87 82 80 89 90 100 88 76 80 87 86 84 82 79 72 69 70 70 69 50 55 24 14 16 19 18 19 22
55 55 83 87 87 55 75 72 98 98 98 98 66 56 66 58 88 79 83 94 94 100 98 99 90 73 91 94 93 85 82 77 76 74 73 66 40 24 33 25 20 16 16 18 19
57 88 96 94 88 60 55 42 98 98 98 99 90 68 62 66 66 62 72 94 100 97 99 97 90 76 67 94 90 81 76 77 76 80 67 74 54 41 34 33 37 27 16 19 22
70 89 89 98 87 66 51 31 66 98 96 87 99 94 65 66 86 65 80 93 100 99 93 93 69 96 98 86 94 90 93 90 86 86 93 72 76 43 37 41 39 38 27 29 35
74 54 77 83 82 78 66 65 97 98 96 100 99 73 72 93 69 77 87 82 98 100 100 90 97 89 97 79 98 97 97 97 93 91 84 59 50 34 30 28 28 34 40 42 39
59 68 64 81 86 76 98 81 96 97 98 98 99 95 85 98 100 81 99 97 92 99 99 99 100 99 89 100 98 100 96 71 82 92 65 40 48 40 29 36 32 40 41 42 43
72 52 73 83 91 84 98 97 97 96 96 100 100 95 100 99 100 99 100 98 99 97 93 95 87 96 97 98 97 93 93 64 58 47 39 41 42 42 34 37 42 43 42 40 42
75 91 96 96 85 82 97 98 97 89 95 99 99 99 99 98 95 100 100 98 96 100 97 85 90 81 99 100 98 99 98 68 80 68 64 46 41 38 38 38 37 38 46 52 65
91 96 98 95 86 89 98 97 99 93 74 99 97 97 99 100 100 100 96 96 99 100 96 98 90 89 98 99 98 99 92 90 97 79 60 38 35 34 32 32 33 38 41 54 76
96 96 98 92 94 94 96 97 99 95 100 95 96 96 96 99 98 99 96 88 97 97 99 99 92 97 86 62 79 98 99 96 83 97 65 57 41 35 38 43 40 44 64 75 85
90 98 91 93 99 99 88 98 100 96 77 91 98 96 97 96 98 92 84 86 77 82 100 100 99 96 88 74 80 77 94 92 96 71 89 90 70 55 49 51 55 55 62 77 79
88 98 98 84 87 95 96 98 97 89 73 71 83 89 93 92 89 88 88 69 60 58 96 97 97 90 84 81 84 87 85 87 98 97 96 92 66 48 55 53 56 59 58 62 73
89 95 97 95 93 76 89 97 95 78 72 62 68 70 85 93 89 93 98 79 67 64 85 98 99 72 72 68 79 93 90 95 98 98 84 81 74 68 67 67 77 74 71 63 61
79 88 82 79 88 93 93 94 86 79 69 69 74 77 96 95 97 99 100 83 80 82 79 92 96 94 96 88 75 93 97 90 99 97 98 79 93 84 79 76 86 86 76 75 78
94 100 99 85 84 95 94 88 98 73 78 69 81 82 91 100 99 98 100 100 99 89 89 95 95 99 97 82 99 95 99 99 99 98 99 100 91 91 79 96 89 87 89 90 69
76 94 95 90 100 96 91 98 97 79 72 67 90 92 98 97 91 91 90 91 94 99 95 98 99 99 92 88 80 98 99 99 99 98 99 100 93 93 96 94 92 79 87 85 70

GFSSW_700_rhum_030.txt.gz
RH
2 1 1 31 34 53 72 86 86 42 31 28 27 27 27 23 21 20 18 16 14 13 14 14 16 22 24 23 32 42 73 69 57 47 40 32 30 35 37 41 40 40 37 44 54
3 3 2 1 33 37 72 82 89 83 43 30 28 31 31 33 33 26 32 23 18 15 18 16 13 22 31 29 39 55 56 46 46 45 42 37 33 38 42 42 40 45 45 40 48
4 3 2 2 1 11 82 84 85 93 83 40 30 32 36 43 47 30 44 34 32 22 24 22 17 39 34 46 61 47 47 40 26 47 41 42 42 45 47 45 44 39 48 45 40
5 4 3 2 1 2 54 80 86 88 100 62 35 33 38 50 62 57 46 54 53 77 49 29 24 69 61 76 76 76 76 53 35 50 54 48 46 52 53 53 47 47 43 52 53
6 6 5 3 2 1 3 34 76 88 100 92 48 36 38 54 63 50 66 60 74 80 77 60 23 33 59 64 84 84 73 71 59 56 69 66 53 50 54 60 44 44 46 50 61
14 15 12 4 2 1 2 15 48 92 98 95 73 39 39 56 78 54 72 65 63 76 80 85 75 64 77 79 78 73 76 79 67 63 51 60 41 40 39 23 24 28 47 43 51
77 46 16 9 3 2 2 7 90 97 99 99 91 45 40 52 77 52 71 68 69 80 89 97 99 93 92 88 87 81 89 74 64 42 37 40 45 29 20 20 19 18 19 25 34
94 89 60 56 39 65 23 7 99 99 98 98 97 54 38 46 62 65 77 73 78 63 84 98 99 96 86 84 89 78 83 76 44 44 39 62 57 40 51 50 40 29 22 16 15
88 86 73 81 81 91 99 11 73 99 98 99 99 72 42 35 57 75 78 75 77 99 81 98 100 99 99 91 93 90 87 70 67 62 62 71 69 48 65 56 58 55 43 34 27
90 86 82 85 95 94 87 68 24 97 98 99 99 90 55 35 45 68 83 78 69 80 98 98 100 99 92 95 91 81 78 73 64 63 66 65 69 59 53 59 63 59 43 36 36
86 87 70 86 90 89 81 76 32 94 99 97 98 93 50 33 42 68 81 77 75 76 86 100 100 100 93 87 79 86 74 63 59 58 62 65 66 62 38 40 21 25 33 23 24
85 94 55 94 92 89 79 78 97 74 98 98 98 100 66 42 48 87 80 87 90 93 99 92 98 91 92 89 86 78 77 73 69 65 65 58 36 28 19 13 15 16 15 13 14
86 71 55 94 97 94 79 74 77 97 98 99 98 90 64 50 47 70 82 96 98 100 99 98 88 77 90 89 82 75 82 79 75 70 65 64 35 21 34 27 19 16 16 15 12
69 60 83 87 81 95 86 72 20 97 98 98 98 97 68 72 73 79 89 92 100 99 98 97 96 88 70 96 89 88 78 76 76 77 72 69 77 22 18 23 25 20 21 21 19
54 62 56 83 72 83 91 51 28 97 98 99 99 97 80 76 76 89 100 100 98 92 99 92 92 98 85 71 88 86 85 84 83 85 86 69 78 21 25 19 20 30 30 33 34
53 47 52 50 62 81 98 82 35 95 97 98 98 100 86 100 98 75 99 98 98 93 94 93 93 73 79 86 89 92 88 82 82 84 92 56 60 20 24 29 29 26 34 38 39
50 52 48 57 84 80 97 90 64 96 98 100 99 99 89 100 98 77 98 96 86 94 97 94 93 96 79 84 83 96 88 86 96 96 88 39 58 34 26 24 32 34 35 33 42
46 76 73 82 96 75 76 74 96 96 98 99 99 98 100 99 95 99 99 98 98 84 86 93 84 92 94 88 94 89 88 76 80 85 66 50 49 41 32 35 37 37 37 36 42
91 88 96 97 99 67 99 66 80 95 96 99 98 100 99 98 93 95 98 98 96 94 90 86 87 88 98 95 95 98 97 78 85 66 74 50 31 32 32 33 33 32 36 36 38
80 90 94 88 88 91 95 96 97 97 98 95 94 90 98 95 96 94 91 90 98 97 91 88 86 88 99 99 96 97 88 92 91 97 80 46 40 38 37 36 35 37 37 38 39
91 85 86 80 94 100 96 97 98 98 98 95 80 96 94 91 92 92 87 89 95 99 92 96 90 93 92 91 80 90 98 96 90 87 91 75 47 37 38 41 45 42 42 48 46
72 98 85 77 92 83 97 98 97 98 94 96 87 87 90 85 89 92 82 87 88 98 98 95 90 94 79 71 65 88 81 78 87 72 76 70 71 50 51 54 53 52 53 57 62
81 87 99 64 81 90 97 96 98 97 95 91 96 91 88 88 87 90 88 83 95 92 88 90 95 96 93 86 82 82 80 86 91 88 90 93 67 47 48 52 68 74 60 55 60
73 82 89 85 77 97 96 96 94 88 92 75 82 89 86 94 87 86 90 86 62 91 98 90 96 70 83 88 88 90 79 82 95 98 88 89 79 76 80 94 97 98 90 88 68
63 68 86 96 78 90 96 94 97 85 81 89 93 94 88 87 92 94 98 81 68 64 80 94 99 88 74 60 65 62 72 83 98 92 99 82 95 90 98 97 87 87 99 94 80
56 80 63 75 93 90 96 96 100 90 95 93 74 83 95 90 92 94 98 89 81 80 89 92 98 96 72 66 84 92 84 92 99 100 99 100 91 95 99 98 95 97 97 93 98
65 61 60 62 85 94 97 99 93 81 74 79 91 95 98 94 90 88 97 97 94 94 91 98 95 87 83 75 80 92 90 93 92 98 96 97 99 100 99 100 98 98 89 90 87

GFSSW_700_rhum_033.txt.gz
RH
7 7 5 4 2 2 20 42 70 85 88 47 30 26 23 25 25 22 20 20 18 15 14 14 16 19 22 20 25 31 68 53 34 31 25 24 34 34 38 36 34 35 41 40 42
8 7 6 5 3 2 4 23 32 76 93 83 46 30 26 26 26 23 24 22 21 17 15 13 14 18 24 22 26 39 57 49 36 32 27 39 35 36 38 39 37 39 42 42 41
10 9 6 5 4 3 2 4 23 70 87 95 74 41 31 29 28 23 31 29 28 25 18 18 21 25 27 29 28 41 47 34 28 35 48 52 44 43 44 42 38 37 43 45 45
10 9 9 9 6 3 2 1 9 90 84 93 99 62 34 32 36 30 38 38 41 34 31 26 29 25 33 33 31 37 49 49 36 30 55 53 45 40 46 47 43 39 44 47 49
27 38 54 34 19 8 4 2 10 79 92 87 98 89 38 34 31 43 66 53 65 60 62 49 34 36 63 29 40 62 49 62 55 41 57 58 48 41 44 48 42 42 39 50 56
98 97 87 83 36 15 5 3 4 70 80 90 98 97 50 34 40 43 64 66 82 86 96 82 52 33 45 47 73 80 84 75 72 58 58 59 56 48 35 48 49 38 42 46 57
97 96 92 80 67 60 28 9 4 7 45 91 99 98 75 37 44 40 47 67 66 77 94 91 88 58 62 76 83 85 76 76 56 46 46 39 42 45 27 25 40 48 41 39 47
92 91 94 82 74 75 78 91 71 5 29 87 99 100 90 45 44 35 52 70 65 64 90 98 98 85 76 89 79 83 82 75 39 44 38 41 36 26 23 28 25 18 20 18 22
94 89 90 82 77 83 93 73 81 31 73 89 99 98 91 54 36 45 68 70 70 71 84 99 99 97 92 86 78 77 77 64 64 57 62 62 56 47 42 43 40 39 36 23 14
87 84 79 84 80 78 76 90 74 49 99 98 99 100 92 61 37 53 79 82 77 86 82 95 97 99 100 99 91 73 78 78 77 65 70 70 69 62 51 60 40 38 31 26 27
81 77 85 74 84 93 81 70 61 32 98 98 96 100 81 57 42 54 85 78 84 99 94 99 98 98 95 73 77 74 88 82 67 66 69 65 65 64 43 37 37 32 33 23 21
72 73 73 76 93 95 97 95 72 73 94 98 98 98 78 56 41 68 84 85 78 86 96 98 97 87 94 94 90 85 97 87 68 62 63 59 52 45 32 15 13 10 11 11 12
60 56 58 74 78 84 97 90 74 88 97 98 98 98 85 58 53 60 82 84 82 92 87 80 94 97 99 100 98 89 86 78 69 51 44 50 26 12 14 13 17 16 15 15 14
50 53 80 76 68 73 92 76 59 95 96 98 98 99 92 76 73 80 94 87 97 99 99 93 87 84 94 89 88 86 80 80 82 76 69 61 80 12 15 19 14 14 17 14 14
50 54 53 73 49 64 89 67 80 89 96 98 98 99 96 72 73 98 100 100 96 95 96 92 91 86 88 71 90 90 86 81 78 78 79 61 60 20 20 12 14 21 28 17 18
52 56 54 44 46 68 94 82 54 82 94 98 99 96 99 89 86 97 100 98 99 98 97 94 86 88 92 83 90 92 87 76 71 81 90 39 54 32 19 20 26 24 20 21 25
87 98 86 51 76 76 95 41 44 94 97 99 99 87 87 98 97 100 99 97 93 98 99 100 93 86 82 80 86 94 86 87 91 92 88 48 67 31 26 24 26 21 25 30 32
92 94 84 76 77 78 58 41 66 96 98 99 98 93 95 95 97 100 99 99 87 85 94 85 75 83 72 82 74 85 83 74 87 98 82 61 62 33 29 24 26 34 34 35 36
88 93 93 99 85 80 99 82 90 98 98 98 99 93 100 89 89 100 100 98 83 80 74 81 84 89 87 92 93 93 90 88 90 77 83 52 35 27 25 32 36 35 35 36 38
84 93 98 92 87 87 92 91 94 98 96 89 94 89 96 92 89 94 92 93 88 77 84 84 85 96 92 95 95 90 79 95 94 98 92 64 48 35 34 37 39 40 40 39 39
85 82 94 83 93 95 96 98 98 98 95 97 93 97 82 88 86 86 84 90 76 75 91 86 84 86 96 92 78 93 97 92 88 86 96 98 56 39 41 44 48 47 48 54 60
61 65 76 90 94 97 98 98 97 94 84 87 72 74 79 82 94 84 75 87 95 85 95 94 86 90 81 72 79 77 70 88 82 64 85 86 71 52 47 45 52 53 60 54 65
32 48 62 82 96 97 98 93 97 96 88 85 84 82 73 84 76 79 84 90 96 98 86 90 93 90 88 82 91 92 88 90 89 88 87 90 68 55 53 62 77 94 96 88 97
34 54 64 80 89 93 96 92 97 96 91 85 85 80 84 83 86 97 90 89 98 98 95 88 88 70 79 93 86 87 83 83 88 98 87 84 77 65 86 99 99 99 98 95 97
54 61 63 79 90 91 86 94 95 95 90 92 89 86 89 87 86 91 95 87 94 98 99 97 93 87 67 65 72 69 63 70 84 80 99 70 91 80 98 99 99 99 99 88 99
49 66 65 82 100 92 86 92 88 79 76 93 92 96 91 87 83 90 88 77 65 78 100 98 91 87 72 85 83 86 79 84 95 92 99 99 98 100 100 99 99 100 100 98 96
51 60 72 73 94 94 87 85 83 77 81 82 89 94 92 96 98 94 95 86 84 82 75 90 97 93 74 73 80 84 87 92 94 90 100 100 98 100 99 100 99 100 100 100 99

GFSSW_700_rhum_036.txt.gz
RH
11 10 10 9 8 5 3 2 2 58 92 100 94 55 31 26 23 23 21 23 21 19 16 15 15 18 21 26 31 37 46 39 28 27 16 15 29 39 37 38 38 36 33 32 33
13 12 11 10 9 7 4 2 4 50 74 99 99 90 42 29 24 19 22 22 22 20 17 16 16 16 19 19 31 36 41 31 25 24 25 19 27 32 36 42 40 38 36 34 34
12 12 12 12 11 10 7 4 2 29 60 83 100 100 71 35 26 20 23 24 24 22 19 16 17 20 21 22 33 36 36 23 17 21 21 25 32 34 44 39 41 40 37 36 40
97 99 60 72 93 52 18 8 3 2 48 62 98 98 92 48 31 22 24 28 28 30 25 18 18 20 23 30 27 32 34 28 18 20 25 39 40 40 48 46 40 40 39 44 46
100 98 95 94 93 97 44 18 9 3 8 71 93 100 96 66 31 37 36 33 36 38 31 23 20 22 21 27 31 39 38 34 26 29 35 46 61 44 44 48 47 42 40 38 43
92 96 98 95 85 85 82 56 29 11 3 83 97 100 94 90 39 37 60 71 49 69 49 39 29 27 30 24 39 52 34 39 45 35 32 39 46 51 35 43 51 48 45 41 38
85 90 93 88 85 85 76 64 61 49 3 80 100 99 89 88 45 41 57 73 73 81 81 79 59 56 42 45 53 66 76 76 58 32 42 37 23 32 33 32 41 51 51 47 44
77 79 82 85 83 80 75 85 78 81 24 50 100 99 98 97 57 33 53 71 75 90 97 100 91 69 52 81 83 87 86 80 61 37 38 45 31 22 25 26 30 29 43 46 44
76 75 79 80 82 78 77 79 82 98 65 65 96 99 98 98 66 41 57 64 68 72 95 99 100 81 64 88 90 89 90 82 53 48 44 50 52 26 30 29 28 23 17 17 23
78 76 76 80 83 83 86 82 81 78 68 29 82 98 97 92 74 40 76 74 74 73 89 99 99 96 84 84 89 71 68 63 65 55 70 70 71 52 49 39 36 30 25 20 17
79 65 67 67 93 93 89 78 78 71 62 60 93 98 99 99 61 54 81 80 80 92 89 99 100 100 95 81 87 79 80 88 80 78 73 71 76 70 33 37 35 32 28 26 23
61 49 55 63 80 82 88 98 85 79 58 98 95 98 82 82 58 77 82 86 95 100 97 98 99 98 99 100 99 100 97 84 73 78 78 68 57 48 39 29 25 18 20 22 18
41 46 51 83 78 70 80 92 85 61 78 97 95 96 84 56 48 72 87 87 96 100 100 97 98 98 98 97 100 99 80 88 86 72 67 62 57 42 22 14 12 11 12 14 12
43 41 46 51 56 59 77 93 69 73 96 97 98 99 89 62 61 66 98 85 95 100 100 99 97 94 100 98 95 93 79 82 83 76 67 50 75 18 14 13 11 12 14 14 13
36 41 68 74 57 48 90 70 58 93 96 98 99 98 86 69 71 88 100 98 98 97 97 90 95 91 81 89 97 91 85 79 72 79 80 56 68 25 16 14 13 12 18 14 14
92 92 90 90 57 79 95 56 83 96 96 98 98 99 94 70 81 95 99 99 99 98 100 92 92 91 83 82 80 92 84 78 73 74 85 46 60 32 16 18 17 18 15 16 21
84 80 81 90 93 89 86 79 84 91 97 98 99 96 85 96 98 100 98 99 98 99 98 98 90 82 81 89 86 85 75 72 87 98 86 58 71 32 21 20 21 25 25 27 31
76 80 90 85 97 87 71 63 80 94 96 98 95 95 94 93 100 100 94 99 97 85 93 97 98 88 76 66 62 73 72 62 72 95 87 64 68 25 22 21 24 29 32 34 35
76 80 68 82 79 79 60 64 89 96 98 99 100 98 98 94 99 97 96 88 91 82 73 88 87 94 88 76 68 84 93 82 86 89 90 57 40 28 20 29 34 37 38 37 36
60 48 56 84 87 82 85 93 97 99 99 96 93 97 98 88 93 95 95 92 90 78 68 73 84 92 90 93 95 85 81 91 86 99 84 62 56 30 33 38 36 41 45 45 43
51 69 80 91 95 96 97 99 95 95 95 94 85 96 84 86 85 88 88 85 88 81 79 80 74 95 94 90 84 94 94 86 78 82 94 97 56 39 42 45 46 50 57 58 56
58 67 88 94 96 92 97 98 95 95 84 88 78 71 77 75 87 84 82 85 74 75 80 82 83 86 84 84 79 92 86 78 80 68 93 97 71 47 47 50 54 70 90 93 87
59 73 87 85 88 90 100 100 99 82 80 80 71 71 68 78 80 78 82 82 79 88 84 83 82 82 91 77 84 91 80 92 80 79 92 88 66 52 62 85 78 95 98 98 99
44 50 67 80 82 80 88 97 99 94 82 75 71 76 79 76 80 81 87 92 88 95 90 84 82 66 78 82 74 81 71 74 89 97 86 79 64 64 84 93 98 96 99 98 99
45 50 61 78 90 97 89 93 93 91 84 77 76 73 80 82 84 91 88 92 97 93 96 94 92 80 72 79 90 86 79 85 87 76 93 67 81 78 98 99 99 99 100 96 96
46 53 59 72 76 79 76 86 87 94 97 87 89 89 86 84 84 88 84 88 93 97 99 96 90 82 70 72 74 71 66 68 76 83 92 90 91 99 98 100 98 90 95 98 99
55 56 51 54 65 76 75 74 76 78 90 95 99 92 88 95 90 84 84 79 76 74 88 94 89 91 70 80 78 84 80 94 92 92 95 97 94 98 95 99 94 99 93 98 92

GFSSW_700_rhum_039.txt.gz
RH
16 15 14 14 14 12 10 8 4 2 17 77 100 100 94 58 30 24 18 22 26 22 17 16 16 19 24 26 31 39 43 44 33 30 22 20 22 25 30 39 35 34 36 37 34
14 14 33 40 39 44 30 11 7 3 4 42 96 100 95 90 40 24 22 24 25 23 20 17 16 17 22 25 31 34 40 37 31 28 25 24 25 22 33 39 38 38 38 37 35
13 30 54 100 98 100 97 39 11 6 3 25 88 100 100 94 68 22 27 25 24 24 22 18 17 18 21 23 33 33 32 27 24 24 23 24 24 22 24 34 41 43 41 39 37
42 57 76 91 96 97 100 98 50 18 5 23 83 100 99 84 77 33 25 26 27 25 24 20 17 19 21 23 29 30 31 21 20 23 23 25 22 23 22 29 37 42 43 41 42
80 91 83 82 86 88 93 91 92 57 16 12 96 85 99 99 72 39 29 26 33 29 26 22 18 18 20 20 26 30 32 25 20 19 21 23 24 21 17 20 40 42 43 43 41
76 86 83 79 84 83 87 86 77 76 40 6 75 76 99 99 96 48 56 34 37 64 33 26 21 20 22 22 26 38 34 31 29 25 23 22 20 25 14 15 36 40 47 44 42
86 84 72 72 80 83 84 83 75 65 59 60 28 80 100 97 91 61 38 68 51 61 42 30 27 37 35 31 32 43 48 34 32 32 33 26 17 18 20 21 18 38 46 49 47
94 89 77 72 80 85 83 78 88 92 81 77 73 85 99 91 100 61 45 74 80 83 74 55 55 57 51 57 48 52 65 72 36 27 30 33 18 17 23 17 17 25 40 50 51
94 89 75 72 80 86 85 79 79 88 86 82 90 99 97 98 94 55 60 87 90 98 99 90 84 85 66 82 88 93 82 70 45 40 45 52 52 28 28 22 22 18 20 32 41
97 76 54 66 89 96 93 95 92 82 89 83 71 99 93 96 98 54 53 83 82 95 100 98 98 94 94 99 94 91 75 62 60 52 61 64 72 31 28 28 31 27 17 13 13
50 38 45 57 88 84 86 93 94 79 83 56 52 98 96 97 98 65 73 62 73 86 100 100 96 98 87 66 71 75 73 70 63 66 62 51 68 55 28 40 32 25 22 21 18
40 40 46 51 94 84 82 83 97 90 67 62 94 98 85 89 98 76 90 78 87 88 99 99 99 98 98 87 91 92 88 86 78 80 84 70 57 45 31 29 35 36 32 27 26
39 42 47 48 66 55 74 76 88 99 87 48 91 92 100 99 96 83 93 99 90 97 98 100 98 97 96 100 100 93 99 82 84 74 76 74 62 40 30 30 25 16 13 13 10
90 90 62 49 60 74 74 96 81 86 84 54 95 95 98 100 81 84 98 100 100 99 99 100 99 100 98 99 99 99 95 79 76 80 77 66 73 28 16 11 11 11 12 19 18
79 79 90 92 93 85 96 76 80 96 85 96 99 98 100 97 70 95 100 100 100 99 99 98 93 87 100 96 98 96 86 80 83 76 71 52 61 23 13 12 13 16 16 19 17
74 79 72 77 72 92 70 52 94 95 96 97 98 99 97 91 74 97 100 100 100 100 99 96 97 98 93 98 99 92 85 89 83 73 78 57 60 17 17 19 18 19 21 20 21
70 69 79 84 84 85 89 87 93 95 96 98 98 90 89 100 84 99 98 98 99 99 99 100 100 98 95 86 86 87 93 64 68 93 76 61 69 19 25 27 21 17 20 23 25
64 85 56 52 63 70 74 74 93 97 97 98 98 97 99 99 100 99 98 86 99 97 94 90 99 94 88 93 82 87 81 52 58 87 85 67 70 30 21 22 31 32 30 31 35
64 82 72 50 61 71 78 91 96 97 98 99 98 98 99 99 98 99 91 88 97 90 81 89 88 90 87 79 76 83 86 69 72 94 93 58 41 19 22 27 32 33 36 41 43
75 81 88 87 84 84 97 98 99 100 98 89 88 94 98 98 97 94 98 96 96 82 80 76 81 90 88 92 88 80 71 77 70 66 76 56 45 25 34 39 42 44 48 48 46
89 82 74 75 77 79 99 99 98 93 90 79 80 90 81 90 88 97 90 79 84 85 76 66 67 95 94 95 90 89 91 79 71 69 85 91 40 38 42 53 56 59 60 63 67
62 83 96 70 85 68 87 89 92 88 77 68 72 69 71 75 81 70 82 73 84 86 77 77 77 98 99 91 90 97 81 78 60 73 99 96 55 50 54 63 94 86 82 82 92
56 62 68 80 100 93 93 86 86 80 73 69 72 70 70 66 80 80 78 80 81 85 83 80 75 86 94 88 86 84 91 94 82 78 86 85 54 50 59 85 81 87 77 85 79
48 65 62 56 79 88 89 87 96 87 78 74 69 71 72 70 77 76 73 72 73 80 82 82 77 67 73 76 71 80 69 69 90 95 84 72 50 60 84 80 82 85 90 92 95
41 56 61 70 64 67 83 93 81 81 84 81 74 69 74 83 80 80 83 85 87 89 95 93 84 83 83 79 85 80 71 73 78 71 80 55 64 83 96 99 98 98 98 88 97
36 57 72 66 65 74 76 85 77 77 70 72 75 81 92 84 83 82 81 87 87 90 92 95 91 85 69 67 68 70 70 77 81 79 77 71 82 100 96 89 100 100 100 98 100
37 51 64 65 67 66 68 72 88 84 87 90 94 96 97 88 87 87 86 88 82 80 89 98 93 85 75 86 80 73 63 64 75 90 96 97 99 93 91 85 96 100 100 99 100

GFSSW_700_rhum_042.txt.gz
RH
14 12 12 18 22 58 62 26 19 12 6 6 57 87 100 98 91 45 22 19 27 26 21 18 18 25 27 30 43 46 40 36 31 29 29 27 26 26 22 29 34 38 36 36 38
6 13 28 38 64 75 99 99 87 42 14 5 18 91 74 98 99 64 26 26 26 27 25 20 17 22 27 28 36 44 44 41 38 35 32 30 30 26 23 20 26 38 36 35 36
16 14 42 93 91 87 84 85 92 90 43 15 4 91 95 99 99 53 60 28 27 27 27 22 20 23 23 27 31 38 38 38 35 30 29 31 30 26 24 21 21 36 39 36 38
28 58 33 51 85 82 82 85 86 89 98 53 8 51 97 99 98 74 61 30 28 26 26 24 21 26 29 29 32 32 34 34 28 27 29 30 29 27 22 16 23 36 42 44 43
46 67 60 87 83 79 78 80 78 80 82 83 20 17 100 99 98 67 52 33 28 26 25 25 21 23 24 28 37 35 34 31 25 26 28 27 25 23 16 16 18 31 40 45 45
62 98 88 87 82 71 79 86 86 86 82 70 42 62 99 99 95 86 48 32 26 26 26 43 24 27 30 24 26 34 34 27 23 24 24 23 20 18 11 12 14 18 38 45 48
98 100 88 86 79 76 81 85 83 84 73 66 73 96 100 98 92 99 60 40 28 30 30 34 35 36 37 35 34 43 37 30 21 23 25 22 16 13 11 13 12 12 19 44 49
89 99 82 74 78 78 79 86 81 87 94 68 81 97 100 100 93 98 61 80 39 48 64 42 35 48 57 52 48 56 56 51 30 24 24 27 18 21 17 15 13 13 15 20 44
88 94 48 60 68 95 92 85 77 78 92 88 93 100 100 77 97 98 64 79 52 76 83 66 46 58 65 64 69 78 68 55 44 31 28 24 28 25 23 19 16 13 13 17 21
84 46 32 44 74 87 87 88 91 89 82 77 87 98 99 78 96 79 64 87 74 96 93 90 79 72 72 96 88 90 83 52 41 37 34 40 59 22 22 18 19 18 13 12 11
84 48 43 44 57 80 77 67 74 87 80 82 66 88 71 93 98 73 89 99 91 99 95 92 93 87 89 91 84 72 71 66 53 59 56 44 46 28 20 21 19 19 17 16 15
94 92 89 41 49 67 56 68 70 87 76 83 71 98 79 94 98 75 78 96 87 99 99 99 100 96 90 84 93 94 86 74 70 70 74 61 50 40 22 18 21 23 24 23 24
85 80 86 93 46 58 65 62 78 88 87 68 73 98 97 99 99 89 69 84 81 82 92 99 98 99 99 97 87 96 91 80 78 77 79 72 56 32 26 29 29 26 24 20 17
75 87 79 91 86 77 72 84 82 89 64 58 97 99 100 92 98 99 98 87 95 88 98 94 89 99 97 99 97 98 87 85 81 80 80 69 71 34 23 15 15 13 13 13 26
71 83 68 85 84 80 88 71 87 64 71 71 97 99 100 99 92 99 99 100 91 99 99 100 96 85 99 97 99 99 99 91 82 84 82 64 61 21 17 23 18 17 18 16 18
57 68 80 66 76 53 44 79 98 95 96 97 95 98 98 98 96 98 99 98 99 99 99 97 99 99 99 99 99 98 98 89 88 87 79 60 49 14 22 28 31 27 22 25 26
59 53 67 73 78 69 72 96 92 92 96 94 97 98 95 92 91 94 99 99 98 98 100 100 99 98 100 98 99 100 97 77 64 77 74 62 58 18 33 29 27 26 22 22 24
89 61 66 79 82 75 96 93 89 96 100 98 97 96 98 94 89 91 98 100 99 93 94 96 99 99 97 91 81 97 90 56 54 75 74 72 68 32 34 29 26 24 27 28 32
86 91 61 68 58 74 93 96 96 95 98 98 95 97 100 100 98 98 94 95 82 81 81 90 95 97 91 94 91 93 90 76 64 86 85 55 36 29 29 28 36 40 39 39 40
74 77 66 57 74 88 88 98 100 96 96 85 87 93 96 89 98 94 96 94 90 90 77 82 90 99 94 92 85 79 75 76 62 72 64 44 40 22 33 42 53 54 52 52 55
66 75 88 76 86 82 100 89 85 89 83 74 74 88 82 93 92 94 88 91 88 86 88 69 69 99 96 91 87 85 83 70 65 64 77 72 30 35 40 58 68 70 75 72 71
64 72 72 75 80 84 87 92 89 83 68 59 64 66 80 80 81 76 83 77 90 90 81 71 69 97 94 91 89 92 84 74 56 72 84 90 41 42 51 55 74 77 78 76 76
60 66 71 66 79 81 78 80 82 76 68 63 68 64 62 70 73 80 82 78 74 85 79 70 72 83 99 92 91 88 87 88 78 67 75 80 41 48 54 66 80 81 68 89 83
44 58 60 71 80 76 86 82 79 76 73 68 65 68 65 64 67 75 75 74 70 86 84 77 72 66 67 73 72 82 71 80 89 91 76 54 33 50 75 78 68 77 88 95 76
38 50 55 62 66 77 82 84 81 83 79 73 73 68 70 71 74 77 71 74 72 88 89 85 79 74 74 76 76 84 76 74 73 64 71 44 52 73 79 79 85 86 89 79 82
36 41 62 60 58 67 76 82 79 72 74 73 74 80 76 73 78 68 68 70 76 87 84 89 87 83 75 71 69 70 70 80 80 77 72 59 70 89 87 90 82 90 97 83 67
40 42 60 62 60 58 65 70 78 78 82 77 79 80 81 83 84 84 84 80 81 83 92 96 94 84 78 76 87 73 63 65 57 56 70 79 85 86 82 81 90 89 92 91 88

GFSSW_700_rhum_045.txt.gz
RH
7 8 14 33 37 34 46 62 93 96 50 20 11 29 97 99 100 100 40 26 29 29 28 23 21 28 33 40 44 34 39 43 31 33 29 27 27 26 26 24 25 35 39 38 36
13 23 26 42 63 73 98 95 92 88 92 85 42 9 89 96 92 54 76 71 34 28 29 25 20 23 30 36 47 47 36 29 25 28 25 26 28 30 27 23 24 28 36 38 36
29 52 54 99 82 94 88 90 83 90 87 90 79 36 51 99 99 96 77 95 40 29 32 31 23 23 31 35 40 48 46 42 37 34 32 34 35 34 30 24 22 25 28 37 36
41 48 98 80 74 89 85 81 86 86 84 88 89 70 16 100 96 96 77 88 46 30 31 33 26 26 30 38 41 43 42 44 42 39 38 37 38 36 31 24 23 21 23 34 36
76 92 92 85 75 71 78 76 72 72 79 78 78 77 25 92 86 90 78 75 45 30 30 36 25 35 31 38 43 44 42 41 33 35 32 31 37 37 28 25 21 20 22 31 40
93 91 94 82 79 74 76 72 75 79 84 87 83 69 44 98 87 99 75 80 40 28 28 50 26 31 51 44 46 53 44 35 32 31 31 31 32 32 22 20 18 16 18 26 37
85 92 98 78 56 63 69 74 78 82 83 83 84 71 55 84 90 94 100 70 43 29 27 69 44 32 30 43 38 53 46 40 28 30 34 31 29 24 19 17 13 11 13 17 27
81 89 86 37 51 74 83 81 78 78 91 91 70 94 57 72 94 90 96 67 39 47 32 52 74 57 46 46 41 48 56 40 24 24 29 29 28 23 17 13 11 11 10 11 15
91 92 62 36 52 80 79 84 78 81 84 95 80 96 75 74 98 98 95 84 75 64 53 66 82 83 74 61 69 71 67 49 38 32 30 26 28 19 19 17 14 14 12 11 11
93 96 94 66 43 59 73 69 59 65 81 82 96 99 85 99 88 90 77 98 73 64 88 93 88 82 74 66 79 89 84 46 30 27 27 31 41 25 23 19 19 18 15 13 12
77 86 83 96 57 48 69 50 59 73 85 79 80 96 88 81 81 99 64 95 72 78 99 98 88 66 68 71 75 60 43 41 34 38 43 43 49 20 25 22 19 18 18 17 16
73 84 79 78 92 46 61 64 58 84 79 79 72 100 88 100 99 90 74 99 95 99 99 95 93 71 64 84 74 74 67 63 61 57 56 50 45 23 24 23 23 18 16 17 18
70 74 64 77 97 86 57 66 76 85 77 71 88 98 96 98 97 86 98 97 99 98 98 100 93 88 82 89 93 96 78 68 68 75 76 68 48 30 32 35 32 27 23 25 26
61 62 65 80 83 86 76 73 78 78 65 75 97 100 99 98 98 99 99 92 99 98 98 98 96 94 96 92 89 94 89 89 90 82 70 68 68 28 30 28 25 20 18 16 20
57 60 63 44 54 54 61 71 83 58 83 94 98 96 93 96 93 96 100 98 92 89 90 99 93 99 99 99 99 96 88 89 92 81 81 72 58 31 26 25 27 26 23 21 22
53 63 68 56 68 72 90 100 95 88 96 96 98 98 92 89 94 92 99 85 96 90 93 86 99 96 99 100 100 99 99 99 88 86 83 65 59 24 34 41 39 37 35 35 34
58 55 68 71 80 96 91 80 81 91 98 98 98 100 95 99 99 96 99 99 93 98 98 93 99 99 99 99 100 99 99 85 64 77 76 58 60 26 35 39 39 37 34 29 24
49 43 51 56 80 79 66 55 82 100 100 97 98 99 99 98 97 100 99 79 93 84 97 97 98 99 100 99 89 97 98 69 59 60 60 63 62 36 35 35 35 31 24 25 30
56 39 36 53 70 69 50 77 88 94 99 98 99 96 99 98 93 98 98 93 97 88 86 86 98 98 92 97 92 95 97 76 62 75 73 44 38 36 32 33 39 40 37 36 39
61 51 59 75 73 76 71 99 91 79 79 94 82 95 98 87 81 97 97 95 88 88 79 78 93 98 99 100 94 82 84 79 66 73 59 37 32 24 37 47 55 50 51 51 54
56 55 62 75 72 74 99 100 99 88 91 77 70 81 93 88 85 86 87 92 86 88 74 76 73 100 97 94 88 82 78 66 58 56 55 44 23 26 38 51 54 56 57 55 56
44 57 57 73 76 82 95 96 97 86 76 64 71 67 73 82 89 86 78 76 80 84 83 76 68 94 96 93 92 92 84 68 53 68 72 78 33 34 38 54 59 62 67 66 57
36 53 57 63 63 70 85 82 82 75 66 66 72 75 70 79 81 83 76 70 91 86 82 75 69 91 100 94 95 93 86 81 69 55 57 67 31 47 49 64 80 79 78 73 59
31 45 62 61 58 66 70 76 74 71 68 65 67 66 66 77 68 74 79 82 77 76 83 75 63 59 60 63 72 88 76 84 83 77 66 47 30 37 59 77 78 81 76 64 68
30 32 50 61 70 70 70 68 69 73 70 70 71 67 66 66 69 71 80 80 74 85 94 81 68 66 66 67 68 77 75 69 71 71 66 38 36 63 79 79 82 79 77 76 73
33 31 40 63 68 75 80 82 70 67 76 76 72 73 73 71 71 67 79 74 74 74 96 88 75 76 73 71 71 68 70 72 77 71 62 51 58 76 84 83 84 85 85 76 72
12 39 38 60 61 72 76 83 84 82 77 70 77 77 77 78 82 85 76 73 73 68 85 88 82 85 74 73 77 74 59 60 58 55 54 62 77 82 78 81 82 85 75 72 69

GFSSW_700_rhum_048.txt.gz
RH
24 27 28 28 57 68 80 87 68 80 82 93 87 42 9 77 98 95 78 62 45 30 26 29 23 28 42 43 35 42 69 62 66 62 55 40 30 28 27 27 24 25 35 37 38
35 39 42 68 77 92 98 72 69 78 87 86 87 89 33 56 76 94 84 79 76 35 28 30 23 28 37 44 44 39 59 51 58 62 42 31 28 27 27 26 25 23 27 37 38
35 62 87 89 88 80 60 64 66 87 90 85 88 90 87 27 99 68 99 99 87 42 29 34 30 46 37 38 45 46 58 56 52 32 28 29 28 26 27 28 28 25 24 35 38
32 75 86 85 88 86 73 66 71 75 86 90 85 84 89 48 83 88 75 80 99 47 30 34 40 68 49 36 36 49 46 59 46 31 29 31 32 31 31 37 30 28 24 27 32
56 62 77 77 84 70 62 67 78 80 85 84 83 88 96 68 43 87 84 80 98 62 29 32 34 71 76 61 35 42 58 49 47 42 42 42 42 42 36 35 32 27 24 23 26
75 83 84 81 71 49 52 66 76 78 93 80 73 76 84 64 40 95 87 80 94 80 30 32 33 67 99 82 53 46 69 45 47 41 42 43 44 43 37 35 31 28 23 21 20
90 94 92 84 35 50 68 77 73 78 85 86 83 80 79 59 41 94 71 72 87 75 30 39 35 68 85 88 69 75 61 50 41 38 38 37 42 34 33 30 27 24 21 18 17
89 93 92 95 37 61 65 75 76 72 76 82 81 82 77 56 64 88 97 97 97 72 33 52 48 71 91 78 54 68 76 72 36 32 37 35 41 45 24 22 20 18 17 14 12
85 88 86 84 52 53 66 59 61 68 75 95 92 86 86 51 68 98 99 99 97 44 50 67 80 70 86 76 88 83 53 58 62 29 38 29 44 41 21 18 15 13 11 10 10
76 74 82 78 88 49 51 54 45 54 74 81 96 86 90 57 95 98 91 99 80 71 90 94 89 84 96 86 58 66 59 71 59 46 34 30 47 27 24 17 16 14 13 13 12
41 54 65 72 92 70 60 56 59 66 89 80 94 95 83 88 98 95 98 92 51 91 94 95 97 89 97 87 67 72 70 57 28 45 34 47 65 29 25 21 16 16 15 13 13
50 38 64 75 92 67 58 51 61 77 81 74 84 97 86 98 97 99 92 95 94 88 93 93 98 98 99 95 68 73 63 60 46 38 44 62 44 30 26 21 17 16 15 14 14
41 41 42 68 82 92 79 68 76 71 78 72 85 95 98 100 98 98 98 96 97 98 99 89 96 99 92 95 87 88 73 70 71 55 62 59 47 30 31 28 26 22 20 19 16
51 56 53 66 60 63 70 72 72 74 77 90 96 97 99 99 98 97 98 98 98 99 100 99 96 89 92 92 83 87 79 74 69 79 59 59 37 45 40 42 40 34 29 25 26
44 54 70 75 81 62 51 50 75 84 94 90 96 85 92 96 94 97 99 98 99 98 98 98 90 99 98 91 92 96 87 92 93 85 78 67 58 49 33 38 36 31 25 23 24
44 36 60 61 49 47 55 64 73 79 92 98 97 94 79 96 98 98 98 98 98 93 97 99 98 99 98 96 96 89 92 93 91 83 83 73 63 36 42 47 42 41 38 37 33
50 41 38 66 33 31 44 58 71 91 96 98 99 95 90 99 96 94 96 92 96 97 88 97 99 98 99 99 99 99 96 95 96 94 66 55 60 39 39 44 43 42 38 34 31
45 54 48 65 52 45 57 62 92 99 98 99 98 99 99 98 93 94 82 91 76 77 93 98 99 98 99 99 97 99 99 80 63 48 42 53 52 40 36 41 42 40 35 29 27
48 53 50 59 57 57 59 61 97 100 98 99 95 100 99 98 98 98 96 90 84 79 82 96 98 100 100 94 91 98 98 73 52 57 63 42 39 41 37 38 41 39 41 40 43
43 46 53 51 53 48 50 95 100 97 100 94 81 89 99 80 86 88 89 87 88 82 78 77 98 99 100 98 94 92 83 80 69 70 55 34 34 30 38 41 41 52 55 55 54
35 43 52 55 68 57 51 100 96 95 86 77 74 82 92 82 74 86 83 88 84 84 76 73 82 99 100 98 92 84 86 71 67 48 40 23 20 24 35 41 55 52 52 57 53
32 44 47 55 66 65 78 100 97 90 80 69 74 74 78 71 86 79 76 81 83 83 77 73 76 100 100 90 88 82 77 66 61 71 68 69 33 29 40 55 53 50 61 62 60
33 44 49 54 58 62 75 78 84 76 67 66 73 72 69 78 80 78 75 69 85 84 82 74 68 96 99 96 90 84 79 78 64 55 57 50 29 36 42 47 55 71 74 72 64
31 33 49 55 54 60 67 71 75 71 67 65 72 74 76 82 72 78 78 78 89 84 82 75 66 54 57 61 66 79 67 74 79 74 62 49 40 49 43 59 77 83 77 70 64
26 36 32 53 55 60 63 67 66 65 64 64 67 65 69 78 77 71 78 81 80 75 75 78 71 59 56 57 64 71 69 70 74 72 68 57 36 34 58 78 80 74 74 68 64
8 35 38 59 55 61 64 65 62 62 65 67 67 67 67 66 66 67 64 79 76 75 78 88 78 70 66 63 61 58 62 67 68 72 68 56 38 55 87 81 79 77 71 68 67
18 22 42 57 66 62 65 67 71 70 65 66 68 72 72 72 74 76 76 80 75 73 68 87 88 73 77 68 71 69 44 50 51 53 52 63 56 81 87 82 78 78 71 69 65

GFSSW_700_rhum_051.txt.gz
RH
19 21 27 51 70 82 97 76 66 85 88 79 93 94 94 27 20 84 99 80 86 48 29 27 29 28 39 41 48 75 85 68 58 50 46 46 48 49 41 38 34 35 39 44 45
23 26 35 84 88 82 80 72 64 59 64 81 90 96 99 86 18 28 98 99 94 80 34 25 27 26 32 45 47 56 78 62 57 52 56 51 51 42 32 27 36 26 28 33 39
34 37 44 59 79 80 76 76 68 60 53 70 83 82 90 94 61 10 32 78 99 88 42 29 34 30 36 54 59 45 56 61 52 53 60 58 52 42 43 37 37 40 43 22 32
44 62 83 73 71 74 79 65 50 53 61 63 83 86 83 93 79 32 91 70 96 83 50 30 60 53 69 41 51 72 62 50 52 52 56 55 50 46 46 39 44 46 36 22 22
65 92 93 91 91 79 59 46 55 70 68 69 68 88 91 92 69 93 74 90 70 94 52 33 84 64 96 82 60 68 65 64 68 54 43 44 52 48 50 49 38 32 28 24 23
90 88 96 96 96 62 47 58 70 71 81 74 75 82 93 91 86 99 78 51 91 96 59 51 58 87 97 97 87 82 74 78 73 55 47 44 59 53 44 59 37 34 31 26 23
94 93 82 90 95 44 62 59 75 66 77 75 80 86 89 85 81 98 99 60 77 75 76 65 91 96 98 97 98 95 74 81 72 67 51 49 57 64 41 48 39 36 31 28 24
87 84 66 82 93 42 60 55 58 69 76 74 79 85 82 71 64 98 94 80 99 95 92 57 94 99 98 92 96 88 85 77 68 52 50 52 49 48 43 34 32 34 28 26 24
51 31 56 59 76 58 57 53 47 48 59 81 84 82 87 70 58 94 98 83 76 99 91 64 67 92 97 97 96 89 62 62 54 56 61 40 46 44 48 30 20 25 28 22 19
50 58 52 63 72 79 45 51 43 48 64 72 89 88 81 72 66 74 97 100 99 99 66 88 82 80 99 82 65 62 57 44 42 63 52 64 61 50 44 31 18 17 25 20 14
55 63 50 69 92 89 43 55 51 72 80 90 93 82 83 74 99 54 69 99 99 91 67 88 94 89 85 73 55 48 51 39 46 51 58 60 56 55 58 24 16 15 21 30 16
50 65 61 59 86 70 53 56 56 61 88 71 80 91 83 91 98 98 98 99 98 89 86 100 96 93 85 73 68 67 52 50 54 60 53 50 62 63 42 22 24 33 28 22 15
42 57 60 57 56 63 62 61 63 59 96 79 93 75 99 83 98 95 98 100 97 99 98 98 89 95 93 81 72 65 58 48 56 59 53 61 58 38 29 20 17 16 15 14 14
36 44 37 55 50 40 47 50 55 74 91 91 93 96 99 96 97 94 98 99 98 99 100 99 95 98 97 85 69 62 69 64 82 70 43 58 24 56 43 35 30 25 22 20 17
57 34 28 49 65 58 70 75 77 84 86 85 95 99 98 99 95 98 98 88 99 98 96 99 98 96 94 85 71 76 70 90 87 74 76 61 51 43 45 48 43 37 32 29 26
59 52 42 27 52 59 71 74 83 84 91 98 98 97 98 98 98 95 98 98 99 97 99 98 98 99 91 82 85 86 81 90 87 82 76 62 49 43 42 47 57 38 31 27 25
57 62 40 45 48 66 60 64 92 91 94 98 100 96 98 98 98 98 98 96 94 98 97 99 99 100 98 88 99 92 92 85 90 96 60 65 62 37 39 45 54 58 37 35 35
54 56 30 36 50 62 55 62 87 99 92 94 98 93 99 96 95 92 98 99 95 90 94 98 98 98 99 95 92 98 89 68 63 63 52 60 49 37 44 42 50 41 39 36 34
43 52 42 30 34 46 48 66 90 87 84 87 92 94 95 89 81 90 81 99 98 95 90 97 98 98 99 98 97 94 98 84 56 47 44 40 41 44 41 40 42 42 39 34 32
34 51 52 48 37 34 41 89 96 93 90 99 89 91 89 95 95 95 89 82 84 79 72 90 97 99 98 100 99 99 95 90 75 75 50 37 31 28 36 37 41 46 49 49 49
30 48 62 58 51 35 44 78 100 92 82 92 95 86 89 94 92 90 93 82 86 78 70 78 85 100 98 98 93 87 90 82 81 61 46 27 22 30 30 34 42 55 53 51 55
31 47 54 60 59 50 53 68 82 82 74 68 77 98 89 93 88 84 92 92 74 74 80 72 98 98 97 92 86 89 77 72 63 68 60 61 37 28 48 55 57 51 48 59 63
34 44 51 54 78 57 58 60 68 70 64 62 65 66 77 90 83 85 75 68 77 77 85 74 77 96 96 90 83 85 82 80 71 56 71 51 38 30 47 56 49 49 71 74 68
14 36 46 56 60 74 69 70 67 65 61 60 63 68 66 77 69 82 74 67 73 78 79 75 67 72 67 70 75 80 74 81 75 75 60 48 41 38 45 51 71 64 74 71 68
18 36 40 56 60 63 66 63 69 72 63 62 62 64 82 82 81 81 76 72 73 82 82 80 74 66 52 47 53 58 62 73 78 74 64 56 45 53 52 61 58 74 73 71 67
26 18 40 48 59 62 65 62 62 58 64 72 70 66 66 73 71 76 80 86 86 76 77 73 72 71 66 59 56 54 57 70 65 64 71 54 49 54 50 65 72 75 74 71 69
37 22 36 54 68 70 98 86 63 64 62 64 76 87 83 86 66 64 74 82 90 89 82 75 79 76 84 69 65 72 37 38 44 45 44 76 50 74 80 85 76 75 74 73 68

GFSSW_700_rhum_054.txt.gz
RH
29 26 29 35 51 71 79 85 83 76 63 59 68 84 94 89 78 36 34 97 95 73 45 26 24 30 36 47 55 94 99 98 90 70 56 46 43 44 43 40 39 36 37 62 47
24 25 36 60 77 73 68 76 74 68 63 58 52 78 93 98 97 54 37 77 63 70 75 30 23 29 33 42 62 91 95 98 82 64 60 59 60 49 45 37 38 36 34 43 50
24 28 64 92 95 91 85 74 73 68 41 46 55 64 95 97 96 60 28 63 81 76 86 38 29 32 49 43 54 72 84 66 69 61 57 54 65 50 45 40 32 35 31 33 38
30 68 85 90 94 96 94 77 64 60 45 49 56 55 82 97 93 79 46 74 100 99 95 64 32 39 56 48 44 60 44 68 66 64 56 54 57 53 41 41 39 37 41 31 23
41 84 89 88 86 93 94 52 43 53 59 65 64 64 83 91 70 90 60 42 95 97 92 83 34 40 67 33 77 72 69 50 55 55 52 53 55 49 45 44 44 43 41 34 28
44 80 80 66 76 88 65 50 60 69 62 76 73 83 73 77 67 89 100 35 64 86 90 68 35 47 79 88 81 78 66 64 60 58 56 51 53 49 41 50 44 44 38 33 28
51 66 50 62 65 83 47 49 52 60 62 67 81 82 75 67 93 79 100 86 73 98 99 64 65 88 91 97 83 85 82 77 68 63 58 55 51 43 45 52 43 30 31 31 30
53 64 51 63 70 76 48 50 39 41 67 77 74 79 78 84 92 69 85 100 98 94 100 71 88 100 91 92 89 93 86 77 74 73 68 57 47 46 40 43 35 38 34 33 31
57 46 36 52 77 82 44 51 38 38 47 70 82 76 78 86 69 65 98 92 95 96 98 100 92 95 93 90 96 87 79 81 72 64 70 66 58 49 48 42 37 36 34 30 27
49 31 38 57 86 92 47 45 41 58 67 70 90 78 82 84 66 84 98 87 63 97 99 97 75 92 96 99 94 73 72 73 70 46 57 66 50 51 51 51 40 26 23 33 23
36 32 36 52 77 76 45 56 71 86 83 99 99 98 78 85 81 90 100 86 92 90 99 82 78 71 64 72 71 68 63 58 59 55 50 60 67 54 53 50 36 26 18 20 22
39 36 40 38 54 68 67 58 55 63 86 72 88 81 68 82 94 96 97 99 99 98 96 78 78 65 71 82 71 58 59 46 48 47 48 55 52 56 55 51 31 20 16 16 29
45 34 45 51 40 38 40 42 44 61 81 73 79 76 70 75 50 66 87 97 95 98 76 100 95 75 87 85 71 66 59 49 53 61 58 49 48 51 46 38 28 14 13 14 20
66 52 35 50 54 59 66 72 89 90 93 82 88 95 89 96 98 65 91 99 98 94 98 95 88 87 90 85 72 67 62 53 55 66 54 42 36 32 33 24 20 17 16 16 16
61 64 47 38 57 62 74 75 74 78 88 76 98 66 90 98 97 96 99 100 97 99 100 100 92 87 94 88 72 63 52 70 76 64 73 64 60 37 45 46 36 26 19 16 17
52 59 48 50 61 62 67 84 82 93 96 98 98 98 99 100 96 99 96 89 90 97 92 91 94 98 99 99 87 79 75 74 76 82 85 59 53 51 46 36 38 37 35 34 32
36 52 48 43 51 58 70 78 92 90 89 98 97 98 98 98 88 98 99 99 93 98 99 97 100 98 99 99 97 80 77 91 93 94 87 54 59 44 40 40 38 38 36 32 29
30 44 44 43 41 46 50 55 78 99 98 93 96 98 98 94 98 98 99 96 98 90 87 96 98 99 99 98 90 96 70 78 75 92 74 63 63 46 41 38 44 43 35 34 36
29 43 44 43 43 42 38 58 80 88 84 93 88 91 96 83 78 95 97 92 90 92 93 98 97 99 99 98 94 91 90 89 66 44 56 54 47 48 42 43 44 42 37 39 37
26 40 44 50 52 58 44 52 88 88 98 91 86 85 84 89 82 79 93 95 91 96 91 95 95 99 99 99 94 83 84 96 70 83 64 44 37 35 39 41 40 40 45 40 38
20 37 43 50 53 49 57 65 71 81 72 91 90 80 81 84 91 88 89 83 85 81 85 90 84 98 98 97 95 99 98 98 86 71 84 55 34 34 32 29 38 58 43 45 43
11 34 47 52 59 83 73 66 71 66 60 67 77 86 85 85 80 82 88 86 80 80 86 88 81 97 98 94 96 98 97 95 97 86 56 60 48 28 31 40 50 50 50 45 47
28 22 45 50 93 74 67 77 68 66 64 77 76 63 79 86 78 81 82 73 73 75 79 71 80 98 96 83 86 85 79 78 72 68 64 71 50 48 47 56 52 55 45 52 62
55 16 33 50 59 86 96 92 91 69 64 60 66 70 73 74 81 79 67 61 73 71 74 73 72 85 76 78 73 77 71 73 74 66 59 49 45 41 53 57 55 46 42 71 68
52 27 29 48 61 65 80 95 95 87 66 61 60 72 82 80 79 82 79 68 66 74 79 75 72 68 62 53 45 53 59 86 82 66 64 59 52 45 42 52 61 58 56 72 70
58 37 19 33 47 64 83 99 91 97 71 82 68 78 80 73 75 72 75 75 71 70 76 78 70 65 69 67 58 53 49 48 57 62 66 63 53 54 58 56 52 46 60 73 69
63 47 28 26 54 76 97 96 100 78 88 67 73 87 82 79 73 67 76 80 84 75 78 73 62 70 86 80 69 58 40 37 35 38 42 49 39 44 46 46 43 49 74 71 70

GFSSW_700_rhum_057.txt.gz
RH
17 20 25 33 50 82 86 76 72 69 75 70 63 52 49 72 79 98 26 25 91 57 78 31 26 31 42 64 83 100 96 93 94 80 57 73 57 43 41 34 38 37 37 46 51
20 25 40 66 84 86 95 95 89 78 71 67 54 52 61 78 93 73 60 23 58 70 56 50 24 30 38 47 76 90 100 74 56 73 79 94 72 44 43 34 41 39 37 49 56
26 32 50 77 75 83 93 97 95 94 75 60 37 40 53 74 99 61 91 47 51 98 78 68 33 30 44 57 73 78 92 80 78 81 100 100 84 59 49 45 39 39 37 35 54
32 37 80 58 61 66 80 97 96 79 68 48 44 48 54 76 93 76 78 56 54 80 97 70 36 36 51 57 61 56 52 52 72 78 87 93 78 62 49 45 38 38 36 33 34
34 35 46 47 70 66 84 90 57 44 54 54 61 65 72 72 72 98 77 60 48 50 85 74 36 43 40 55 58 53 58 47 76 80 78 81 66 64 55 45 44 41 37 36 30
39 26 25 30 63 73 73 52 55 54 52 61 73 74 75 60 73 94 85 42 89 82 90 80 39 50 58 77 58 55 70 72 67 66 60 69 58 58 55 43 45 48 46 39 38
29 28 27 33 56 65 50 51 35 37 58 66 71 77 74 62 79 82 96 88 79 98 100 87 57 40 60 72 57 78 72 90 73 65 58 57 56 54 54 48 43 43 45 43 40
28 35 30 35 71 66 47 49 38 37 44 70 73 75 69 64 87 75 93 71 82 98 100 84 51 72 75 87 85 89 78 90 70 76 66 57 48 47 48 44 46 37 38 40 40
30 41 36 28 61 76 43 44 41 55 59 60 84 79 81 81 71 88 95 70 95 89 98 83 86 88 92 94 85 87 82 81 78 69 58 50 40 36 39 37 34 43 35 30 29
37 44 44 32 48 52 38 37 48 73 61 89 94 81 97 99 80 75 94 96 64 77 98 96 97 93 89 89 90 79 75 67 69 68 55 47 48 48 48 44 40 40 40 36 35
58 39 48 54 30 44 50 48 47 64 67 71 89 94 93 94 99 60 92 98 96 98 97 94 92 82 73 92 72 66 73 73 68 67 60 48 47 39 41 45 41 35 33 26 28
66 54 37 52 57 44 38 39 54 75 84 92 80 76 66 84 86 86 98 97 98 98 98 100 95 82 82 63 71 71 64 66 70 67 61 54 52 47 42 47 44 35 34 29 24
57 54 39 46 56 58 73 79 77 83 90 93 72 65 69 77 100 93 90 98 100 98 97 100 89 79 84 76 70 78 68 64 63 64 64 61 61 52 38 30 37 30 26 25 21
51 45 54 60 56 58 57 70 80 88 94 90 94 54 77 69 74 97 98 95 99 92 100 93 74 73 84 75 80 73 59 62 57 62 64 58 52 40 36 24 29 28 22 21 17
36 44 56 50 48 53 61 67 79 78 86 75 91 90 90 94 69 84 98 90 98 98 89 100 98 75 85 74 82 71 63 60 59 61 68 59 50 32 28 29 27 29 27 21 19
29 42 42 46 47 42 55 65 78 82 96 94 98 98 97 98 94 99 99 98 99 98 93 89 100 96 77 67 85 84 68 72 74 70 82 63 58 38 29 21 23 34 35 28 20
25 40 43 41 43 39 36 51 63 93 93 98 99 97 92 98 97 98 100 92 87 97 95 98 100 97 99 87 99 97 70 89 91 93 90 59 67 42 36 30 40 40 35 31 30
20 37 47 44 36 38 35 34 79 89 97 100 97 99 90 99 98 95 90 86 94 95 93 92 99 99 95 99 98 96 79 65 85 98 84 63 66 51 31 42 39 34 35 35 31
13 31 48 48 40 41 35 34 73 76 79 88 93 95 90 92 98 98 98 88 86 81 73 86 97 98 98 98 97 98 82 73 70 53 69 57 56 51 45 41 40 38 35 32 31
18 23 38 44 43 41 42 41 65 74 77 89 87 82 91 85 82 95 96 94 87 85 76 83 91 97 100 98 98 93 85 82 84 90 70 59 48 43 43 42 42 43 44 38 36
48 17 38 45 50 54 56 62 67 62 65 81 82 74 81 89 86 86 88 96 92 75 76 79 91 100 100 99 96 99 96 87 80 78 88 64 42 39 40 35 41 47 45 39 41
42 17 30 45 78 67 73 78 70 64 65 71 82 84 81 72 78 81 90 85 87 91 92 96 88 98 98 94 96 95 81 87 82 82 66 61 44 30 30 40 42 46 43 48 47
40 41 26 38 78 98 75 71 70 62 57 64 73 79 82 83 78 76 82 84 84 82 89 81 77 97 98 98 98 98 93 89 88 79 73 68 50 36 31 42 45 52 53 49 44
45 43 35 44 56 88 96 96 80 77 69 62 62 66 82 82 80 71 67 71 78 74 77 72 71 78 72 70 73 88 90 94 92 96 73 65 52 45 39 40 46 51 51 41 64
50 44 31 43 54 69 79 99 98 96 88 69 65 68 79 79 74 71 68 64 69 74 78 76 68 69 67 61 51 50 66 81 82 78 68 60 51 48 44 41 58 53 45 39 66
51 56 42 24 44 71 80 99 98 98 95 86 76 76 82 77 77 76 71 65 64 68 76 78 70 69 68 67 65 58 45 42 65 72 73 65 58 52 51 53 55 50 44 44 70
48 64 62 39 46 95 96 89 99 85 98 72 80 85 81 78 77 75 77 79 76 73 74 78 74 60 68 75 78 66 41 47 40 34 36 58 47 57 54 52 54 52 49 48 77

GFSSW_700_rhum_060.txt.gz
RH
29 24 20 21 24 84 88 91 95 92 85 75 78 72 56 67 75 84 59 32 37 48 62 33 30 34 51 78 95 98 96 91 69 61 58 59 64 48 40 37 36 36 38 45 44
29 24 22 28 31 53 61 80 95 95 96 86 76 68 55 58 73 84 68 66 42 72 62 56 28 29 47 63 94 96 100 73 57 52 64 72 70 47 44 40 36 38 37 44 53
26 24 31 32 34 61 74 72 82 96 96 93 80 65 40 63 66 52 76 93 38 90 72 73 48 32 39 52 81 89 81 78 66 70 70 67 69 54 51 48 39 34 38 46 62
25 28 41 33 33 50 76 83 95 91 92 80 71 47 38 50 60 64 94 97 58 47 100 71 56 38 58 50 68 90 88 79 74 89 91 92 84 60 69 55 43 40 39 38 55
26 37 40 25 50 61 74 56 48 45 50 54 52 55 60 48 45 86 90 83 68 40 99 70 59 31 38 42 60 76 79 74 86 100 90 100 96 74 70 50 46 42 40 36 35
29 38 37 22 53 61 48 39 42 42 50 53 61 60 60 56 51 97 80 82 72 37 99 88 55 38 42 43 63 66 79 89 83 94 97 96 90 98 84 54 46 43 38 36 34
43 41 40 23 45 53 42 39 36 35 41 50 64 62 70 63 60 79 99 87 63 44 96 92 50 61 49 52 62 79 84 100 90 79 88 79 82 91 84 74 48 48 45 42 39
55 40 42 30 33 48 40 32 34 47 57 53 72 71 81 74 83 85 98 100 64 78 82 94 47 64 65 73 72 86 72 89 62 62 68 76 73 70 84 79 50 45 47 46 45
58 40 39 45 31 35 33 33 34 50 53 72 72 79 84 73 92 92 96 98 76 88 94 99 57 84 78 84 84 83 77 77 71 60 61 55 64 56 58 58 52 49 46 43 45
54 63 39 54 46 36 44 43 47 62 62 82 86 91 94 94 75 78 92 95 96 97 99 98 84 96 93 89 87 78 52 64 67 65 74 57 50 41 44 49 40 47 43 36 38
46 41 38 52 57 46 39 46 50 65 66 73 89 92 96 94 85 82 89 96 98 98 98 96 90 80 76 95 79 66 66 72 73 73 69 69 58 47 42 36 35 34 32 32 31
43 44 46 56 58 60 58 62 68 70 72 74 68 83 84 76 82 79 84 98 98 98 93 98 100 76 85 93 79 56 71 70 68 69 71 67 57 49 46 42 38 37 38 38 37
38 42 41 44 54 63 66 72 82 82 86 97 88 78 80 67 84 60 76 84 89 99 93 100 100 88 77 78 77 76 73 71 61 60 68 62 62 54 45 50 44 30 28 34 38
32 40 37 40 49 60 66 65 61 74 90 90 92 96 100 88 94 94 97 98 77 99 99 98 90 84 88 81 87 78 70 69 68 68 75 73 65 45 43 43 42 37 27 27 35
25 37 38 35 42 56 64 60 74 74 90 95 91 63 99 82 89 97 98 98 99 98 95 97 82 87 76 74 88 81 70 63 58 60 70 67 65 52 44 38 34 34 32 22 24
18 32 42 39 39 41 51 52 68 84 96 98 99 78 84 73 90 98 99 93 99 94 89 97 94 91 91 86 86 77 70 65 68 73 79 61 58 47 38 31 32 25 22 21 23
12 27 40 41 29 34 42 45 66 91 97 99 98 96 69 80 100 98 98 99 96 89 95 100 95 80 87 93 88 83 74 92 90 96 89 60 66 52 32 33 30 26 21 26 31
33 20 36 45 34 30 40 42 70 90 98 100 98 98 99 98 99 93 99 90 84 70 90 93 99 92 78 82 85 86 80 67 86 96 78 60 66 47 39 31 29 40 39 42 40
43 17 34 39 41 28 28 34 60 69 72 81 81 93 98 99 89 92 76 71 80 78 70 86 98 86 89 95 87 88 94 72 67 67 78 54 40 37 35 28 28 28 33 31 32
25 42 32 40 40 34 32 41 60 70 78 72 82 76 92 97 93 92 86 78 83 80 74 74 94 98 98 91 97 100 89 85 84 85 75 61 59 37 27 28 33 34 36 37 35
29 37 38 40 46 41 38 47 59 64 72 82 77 82 80 96 92 91 93 92 89 82 83 79 77 98 100 99 98 100 98 88 75 74 89 76 51 43 40 40 34 39 42 44 42
36 39 42 42 62 55 52 60 60 67 70 85 80 79 76 81 86 85 88 93 96 91 89 89 87 100 100 99 88 99 95 94 77 82 76 65 48 33 33 40 41 43 47 48 44
36 39 37 31 70 72 71 70 65 60 69 76 83 81 77 75 72 80 83 86 86 86 88 85 86 96 99 98 98 100 95 89 88 83 78 72 56 41 32 25 40 51 53 48 44
39 43 42 41 64 79 83 79 74 68 67 67 68 81 80 77 74 71 77 83 84 89 86 81 73 72 69 67 72 91 82 93 88 96 82 75 66 58 55 42 29 40 47 45 48
37 45 46 43 73 99 92 91 83 85 72 66 71 77 87 78 78 67 70 72 83 80 78 78 74 70 74 69 72 72 72 81 90 77 91 74 71 61 47 39 34 36 48 49 44
37 45 51 35 50 65 80 98 89 90 87 74 66 78 85 82 74 62 64 68 74 77 80 80 73 70 68 65 65 60 52 76 78 83 88 82 71 64 57 50 45 44 43 46 45
38 43 55 50 47 67 89 96 91 97 95 82 79 80 86 83 78 78 77 69 65 67 71 79 81 70 62 64 70 65 42 50 44 46 55 80 40 65 57 53 50 53 48 40 45

GFSSW_700_rhum_066.txt.gz
RH
28 40 29 23 23 22 12 17 35 48 69 71 81 94 85 80 67 54 37 34 48 42 49 60 52 29 40 65 90 97 99 90 78 64 46 43 49 54 49 41 42 42 36 34 34
37 39 29 27 22 13 14 34 46 64 88 91 90 97 96 89 68 49 58 59 79 78 44 60 71 40 46 67 95 98 98 93 67 63 58 51 48 54 57 43 41 40 41 44 43
38 39 28 31 19 13 28 30 24 32 54 83 89 92 96 97 71 58 62 61 99 94 60 58 96 58 38 76 95 98 87 90 88 78 70 71 59 60 57 44 56 47 44 56 50
38 42 30 36 19 16 26 24 23 24 28 34 62 94 96 82 68 48 44 52 98 95 95 74 93 62 37 75 80 98 91 98 95 90 73 72 61 66 54 50 51 49 52 60 59
41 38 34 39 23 19 25 24 26 26 32 36 37 60 51 59 45 32 56 56 92 99 76 84 98 67 36 75 76 72 89 97 97 94 75 74 67 72 61 58 54 57 54 61 61
39 34 35 44 28 24 29 29 29 30 45 45 40 60 48 45 38 34 53 70 85 98 82 93 100 76 52 66 79 81 87 80 88 100 86 76 75 77 72 69 54 56 54 60 60
35 34 36 47 35 29 31 33 35 38 53 56 53 54 50 56 41 46 39 74 91 97 93 99 100 93 54 67 77 92 83 96 99 100 99 94 91 75 68 83 61 52 51 49 50
36 39 39 49 46 38 36 40 43 51 59 78 74 63 58 60 46 57 44 88 74 91 95 98 100 93 72 78 74 95 84 97 92 92 100 99 95 70 73 88 67 62 60 57 53
32 37 41 50 58 48 53 41 57 57 60 79 81 75 76 78 70 64 52 100 72 92 95 99 98 85 81 73 77 91 82 88 85 81 84 98 86 66 80 98 82 97 81 74 68
23 36 43 50 60 60 68 51 61 73 64 74 97 91 88 82 79 86 48 80 87 96 88 96 98 85 94 79 88 83 89 81 82 73 80 64 64 64 81 97 80 87 81 72 67
14 33 42 48 59 67 71 69 76 90 74 84 96 97 96 94 79 98 96 100 92 98 97 96 98 82 79 67 63 67 80 81 84 78 69 67 71 70 74 78 84 78 68 63 60
13 29 43 49 56 68 77 76 86 88 75 71 83 94 86 93 96 88 96 95 98 97 73 98 97 97 97 83 77 61 82 83 87 82 78 83 76 82 77 60 92 80 69 60 59
33 24 42 47 51 68 75 81 78 90 98 97 94 89 99 96 82 90 82 95 98 92 98 94 92 87 89 92 80 81 68 69 69 82 86 80 82 71 75 69 80 81 70 54 45
48 19 41 40 45 56 72 77 87 86 89 98 97 96 100 94 100 79 76 89 95 98 98 98 86 82 95 84 83 91 80 60 71 77 93 87 83 72 69 58 52 52 58 53 45
31 23 38 43 35 44 64 68 83 93 92 97 99 99 91 91 92 70 66 74 85 85 94 98 74 85 91 90 87 87 86 77 81 82 82 80 82 65 54 56 28 39 49 51 45
34 33 23 39 41 42 55 72 75 77 85 92 99 99 100 100 75 58 61 60 97 84 98 97 93 88 92 90 95 81 72 78 81 78 83 74 72 65 53 32 32 39 43 45 45
40 29 32 34 46 36 40 61 73 90 83 92 92 98 98 96 83 82 82 76 98 98 99 98 99 94 89 93 92 80 72 88 90 91 92 71 70 62 56 53 42 33 31 30 28
33 27 27 29 39 44 33 45 73 86 99 97 99 96 96 98 99 99 99 96 99 90 99 98 99 99 86 88 86 92 73 71 86 96 82 70 77 60 42 40 37 34 31 31 33
28 28 27 33 32 41 40 47 74 86 84 94 94 91 99 91 99 100 85 81 83 82 75 90 99 100 100 96 89 98 88 75 61 75 80 64 59 47 38 33 35 32 27 33 31
28 31 32 34 30 40 44 44 68 77 83 82 87 90 93 99 95 92 95 90 92 81 70 76 95 100 99 89 92 85 79 81 74 82 82 63 58 39 36 40 40 36 33 29 29
27 32 34 35 34 42 44 43 68 79 78 80 86 92 81 74 79 76 74 86 86 72 70 68 70 100 96 94 96 94 93 87 81 73 78 80 53 41 44 43 33 32 31 29 33
26 33 37 37 44 44 50 54 63 70 73 78 84 93 92 86 77 74 72 70 73 73 69 72 78 98 100 82 82 86 95 95 95 88 85 80 65 42 42 45 40 38 37 42 48
22 30 35 39 43 53 51 57 61 67 75 82 84 82 85 85 86 86 83 76 72 72 70 71 85 98 99 95 88 89 90 93 100 88 84 84 66 48 46 41 45 53 43 42 47
23 30 36 42 47 55 61 69 66 66 68 72 78 86 86 89 83 89 88 89 90 89 85 83 76 71 74 67 72 86 91 100 98 99 89 85 73 62 52 48 48 54 58 49 49
24 28 38 39 49 45 65 75 72 77 73 68 75 82 84 89 86 82 90 93 98 94 95 92 88 78 79 80 78 72 86 81 97 91 98 87 84 64 58 60 59 58 62 50 41
23 28 37 41 45 47 71 87 88 90 88 88 74 82 87 91 83 75 73 83 92 97 99 98 87 79 76 77 77 74 74 82 83 82 92 90 81 65 63 70 66 65 62 51 46
17 25 34 42 44 47 55 74 89 91 95 93 91 82 84 90 83 80 80 78 81 89 91 93 88 84 80 72 72 74 50 56 60 57 57 84 46 58 59 59 62 68 52 60 54

GFSSW_700_rhum_072.txt.gz
RH
19 21 18 18 19 23 33 29 21 13 16 17 19 25 73 64 85 96 96 69 37 67 52 17 29 31 72 95 98 94 100 87 74 76 72 42 45 43 54 47 40 36 34 32 37
20 22 18 19 23 34 36 29 21 16 18 19 22 27 90 84 73 97 96 90 47 57 74 33 19 28 39 71 95 99 92 82 80 80 77 58 50 48 47 53 45 42 37 34 34
22 21 22 25 34 40 41 32 24 20 20 24 28 31 77 96 99 95 93 81 54 58 74 70 53 70 67 48 84 95 78 88 88 87 82 84 60 64 54 53 46 46 43 38 35
24 24 24 32 39 46 47 37 29 27 28 32 38 32 76 95 97 97 96 80 57 70 88 80 74 70 60 42 62 84 98 99 100 78 79 71 74 74 66 55 50 53 49 45 47
35 24 27 31 40 49 51 41 35 37 45 36 49 38 49 80 93 82 81 71 59 50 88 85 76 73 80 62 74 91 99 100 98 81 83 83 88 79 80 64 55 56 64 52 57
51 17 30 35 40 51 55 48 43 43 46 41 52 55 46 45 86 50 56 56 48 53 95 87 82 77 80 92 83 95 93 98 97 81 89 84 80 84 74 77 67 62 60 58 60
41 24 21 38 42 54 59 52 51 47 46 48 56 56 49 41 42 53 34 42 43 63 95 94 94 87 54 76 81 81 89 80 95 79 92 87 90 85 75 74 78 76 63 57 62
28 48 16 35 44 56 62 58 50 48 53 56 66 54 49 42 36 33 27 36 45 67 96 100 91 92 87 93 71 84 96 97 97 87 92 97 78 62 73 70 72 78 82 70 64
28 49 18 38 47 56 64 62 53 45 53 57 71 68 60 60 41 34 25 22 52 70 79 98 98 96 87 88 91 98 77 89 89 88 94 86 91 99 100 78 66 71 78 87 77
31 33 24 39 48 52 66 63 65 50 51 56 61 73 80 68 64 36 31 31 66 66 94 98 99 98 96 97 76 70 72 83 87 80 91 89 99 84 69 74 63 71 72 80 82
33 30 36 32 44 48 67 68 72 71 66 56 64 74 93 72 76 69 37 40 89 78 98 98 98 98 98 88 58 60 72 94 95 88 78 98 87 91 77 84 72 76 82 77 85
38 35 32 27 44 47 66 70 72 77 88 84 68 81 92 92 95 92 45 67 87 93 97 98 97 99 98 94 83 82 76 82 99 81 92 95 93 72 62 61 72 74 72 76 84
40 38 35 31 37 44 65 69 77 79 81 99 95 94 99 98 94 99 64 85 91 97 87 98 94 97 98 81 88 78 68 82 79 82 98 97 94 85 43 45 61 71 67 71 71
40 38 35 30 40 51 60 70 76 78 84 90 87 77 94 94 98 98 82 70 78 98 98 96 99 94 100 83 82 85 81 86 72 86 68 78 40 66 48 49 47 45 46 44 54
39 35 31 30 36 54 53 70 78 74 84 73 92 78 90 86 100 94 90 91 92 99 81 81 94 97 99 87 84 84 77 86 80 68 74 80 67 44 46 40 34 46 48 51 69
26 30 28 32 37 46 53 60 82 74 93 82 90 98 91 96 99 67 90 96 96 93 73 75 97 86 97 80 78 63 80 83 76 73 71 60 65 46 58 51 36 37 34 45 63
18 21 29 36 34 39 51 54 78 90 87 86 95 100 93 98 98 98 98 94 98 99 100 94 93 95 88 79 83 82 79 87 81 86 58 70 72 49 54 52 43 44 30 32 40
18 23 29 37 36 38 45 55 80 84 99 94 92 93 95 94 96 95 100 92 92 94 100 96 98 98 96 88 86 91 68 62 62 62 49 71 64 48 46 37 37 40 43 31 28
15 21 31 33 38 40 44 57 79 86 87 91 92 90 94 98 95 96 99 96 88 96 95 96 98 95 98 92 85 91 86 64 70 70 60 55 61 39 38 42 38 36 43 41 37
14 19 30 36 37 45 50 58 75 82 86 90 94 90 94 98 93 95 99 98 89 87 82 84 97 99 90 88 91 76 78 75 73 75 58 46 47 34 48 46 41 35 35 36 34
13 18 27 35 37 47 57 64 74 82 82 86 90 90 94 98 91 91 96 99 98 81 76 78 87 97 95 93 98 88 87 78 73 71 50 44 34 40 47 49 47 41 44 41 35
12 19 24 32 42 45 65 72 77 82 80 85 96 84 93 91 91 84 94 94 96 81 69 68 88 99 98 88 78 81 92 83 71 77 77 69 46 40 42 48 54 45 44 47 49
11 16 22 32 41 50 64 70 72 73 76 88 91 81 85 87 88 81 79 84 89 79 76 68 80 96 98 96 89 95 92 85 88 75 90 66 50 43 40 41 43 44 44 46 52
13 16 20 30 39 48 72 72 73 75 74 81 86 81 80 81 82 85 83 79 83 91 82 76 74 74 66 67 78 90 82 83 88 91 74 71 61 56 48 43 46 50 47 50 52
8 14 17 25 37 47 64 77 80 79 75 69 81 87 82 79 80 82 86 86 90 86 88 87 84 78 72 69 72 71 67 63 69 55 81 68 70 72 58 66 54 60 63 67 61
5 8 13 23 38 43 54 66 82 85 82 80 74 79 92 91 88 85 79 86 88 95 92 87 88 85 80 76 75 71 71 70 69 68 81 69 66 72 63 66 62 62 67 65 59
7 11 13 20 33 42 47 60 78 93 90 86 87 80 86 91 89 84 76 75 88 97 92 92 92 84 91 77 74 68 50 52 52 51 59 94 38 62 47 44 40 41 48 62 63

GFSSW_700_rhum_075.txt.gz
RH
35 20 20 18 19 23 29 36 36 30 24 20 19 18 19 17 62 67 62 86 92 50 47 26 26 38 82 100 98 90 99 84 67 79 67 46 47 40 42 37 35 51 67 61 45
42 22 22 21 26 27 35 42 39 33 28 26 26 26 23 28 89 72 72 90 97 58 85 61 38 39 58 95 98 99 100 73 66 62 72 48 68 37 48 50 45 44 44 59 50
42 28 22 26 27 31 40 48 43 38 34 42 35 36 28 61 92 92 76 98 94 55 89 78 100 79 55 89 98 99 91 92 70 74 73 68 45 36 49 76 72 44 40 40 49
23 44 18 29 32 35 43 52 48 45 41 41 35 40 33 39 95 96 90 97 90 52 97 91 96 85 85 88 97 98 87 90 82 89 91 76 56 50 55 86 55 48 47 43 42
24 34 33 18 35 41 47 55 51 45 39 40 42 50 46 54 97 95 96 97 70 63 83 85 76 71 93 76 93 94 99 95 95 100 83 86 69 63 69 72 58 53 53 55 46
27 25 48 16 32 44 51 56 54 40 40 47 52 55 46 89 71 92 90 88 66 62 94 92 86 81 89 76 75 80 97 82 95 70 84 92 87 74 78 85 72 60 57 66 50
31 26 47 19 35 46 55 58 55 39 40 52 58 52 44 57 39 59 55 65 57 69 100 98 97 94 96 78 79 83 77 90 83 76 100 96 86 81 59 77 82 77 73 70 57
32 29 33 24 38 50 55 60 58 44 40 47 56 57 85 49 40 47 39 53 52 64 90 100 98 89 94 86 85 93 78 94 87 100 92 92 76 79 56 68 80 84 88 82 69
35 32 30 33 34 44 54 63 65 52 44 50 56 58 95 62 47 32 31 49 47 65 78 100 97 98 91 88 92 92 70 78 72 93 98 81 73 68 72 88 90 79 89 85 86
34 36 34 32 29 44 53 66 67 66 66 60 65 81 84 74 50 41 29 28 60 54 71 98 100 100 95 98 72 69 59 67 59 92 100 95 92 84 96 68 67 93 84 86 84
37 39 36 35 30 45 54 65 71 70 82 87 70 74 82 65 60 55 38 35 79 62 71 97 100 92 87 89 53 44 46 60 56 88 93 92 95 96 76 68 66 84 80 84 83
36 38 39 35 31 43 51 67 76 74 82 96 96 84 83 64 67 77 42 71 73 94 76 98 99 94 93 91 93 54 49 63 69 95 91 84 75 84 86 55 67 67 77 81 80
30 36 36 31 29 42 50 69 77 79 78 96 80 85 80 79 82 63 45 73 67 74 87 99 93 85 94 98 84 58 45 74 77 92 98 72 67 72 84 88 56 48 52 70 78
23 31 35 26 32 40 52 66 77 75 82 97 89 81 88 94 82 62 66 83 68 70 80 99 92 98 97 89 69 73 57 62 65 86 70 75 38 42 69 63 45 43 44 69 70
20 19 26 28 27 43 52 59 80 69 82 89 87 71 80 85 90 95 97 81 85 98 99 93 84 96 100 87 74 66 71 72 81 76 49 66 60 39 55 69 63 72 55 72 63
21 19 25 29 32 38 50 54 81 84 87 82 96 85 84 92 94 91 95 97 98 93 97 85 84 98 94 88 85 76 74 80 75 60 59 57 51 36 38 49 51 58 60 55 53
17 20 25 29 30 38 47 54 88 97 71 90 91 75 87 95 86 98 98 98 89 100 96 93 98 98 98 83 72 75 72 71 69 76 59 56 46 40 47 49 48 40 54 57 55
13 18 22 29 32 34 45 60 98 85 88 83 92 86 94 83 86 93 92 98 96 93 92 95 99 99 90 88 78 79 60 52 54 52 42 62 55 43 47 46 48 46 42 41 47
11 16 20 25 33 34 45 70 93 77 82 84 91 100 99 89 93 98 94 96 98 94 80 85 98 94 94 92 82 87 79 70 61 55 44 49 47 44 44 48 44 37 34 40 41
10 14 19 24 32 33 47 60 78 76 82 92 99 95 98 89 93 100 86 82 95 99 86 92 98 94 89 86 80 88 84 62 73 68 46 40 36 32 42 47 48 38 35 36 38
11 13 20 24 33 38 47 59 79 81 78 98 94 89 89 94 94 97 97 86 100 90 85 92 86 99 94 91 84 82 83 78 70 66 51 33 30 36 50 50 43 41 38 37 36
8 15 16 24 36 38 52 64 75 80 77 83 90 99 95 96 88 90 98 99 93 92 94 87 98 99 95 96 89 86 82 67 65 61 57 64 44 38 45 42 44 44 43 43 44
9 12 16 24 35 49 54 67 79 79 77 89 87 82 91 95 88 94 92 89 94 91 91 74 95 97 92 96 86 84 87 84 69 75 84 56 40 42 44 44 43 43 45 50 40
7 11 15 23 34 49 74 82 74 70 76 85 88 80 86 88 84 88 83 79 93 92 80 74 85 85 68 75 73 89 83 84 89 95 69 64 54 51 52 51 56 58 68 61 52
4 8 12 16 29 40 48 85 98 75 69 80 87 85 84 83 86 94 90 80 85 86 84 82 81 73 66 64 64 76 94 92 96 89 82 65 61 57 58 59 62 71 69 53 53
4 6 11 14 24 38 46 65 100 83 75 74 85 79 83 86 91 90 96 96 96 84 88 89 85 80 78 73 74 74 77 91 91 92 92 82 75 72 55 80 77 67 58 58 57
5 8 12 17 24 39 70 88 77 79 84 79 73 84 98 88 86 81 79 77 92 99 96 93 87 84 85 78 74 72 57 58 66 61 82 82 64 72 74 76 50 38 37 38 49

GFSSW_700_rhum_078.txt.gz
RH
16 27 40 21 19 18 23 25 34 44 43 41 35 35 28 26 24 17 33 36 50 91 79 38 30 22 51 96 99 89 96 91 74 57 68 58 48 38 42 41 36 64 64 67 55
18 19 39 23 23 25 25 30 41 49 47 41 34 32 31 35 29 51 86 74 53 86 87 56 48 65 57 86 98 100 98 81 59 74 78 65 56 47 44 43 37 48 65 78 68
23 24 25 46 16 26 32 35 48 51 48 35 38 35 42 38 37 95 98 87 77 84 73 68 96 56 79 77 98 99 99 94 80 74 90 70 59 53 69 77 33 28 58 72 76
25 28 26 40 25 19 35 38 52 52 38 37 42 46 47 44 93 92 96 90 77 99 82 89 77 72 72 82 89 100 84 86 90 94 95 80 54 50 72 60 49 25 40 52 75
26 28 28 40 33 23 39 40 53 53 36 38 44 48 45 70 84 85 96 94 98 97 99 93 92 68 74 57 87 93 94 79 83 98 81 99 80 51 56 60 50 35 40 48 53
28 29 30 28 33 29 43 44 55 51 36 39 45 48 39 97 54 90 96 97 96 83 97 100 95 79 75 87 83 84 96 80 82 98 84 96 90 70 57 50 40 44 48 46 57
29 31 32 30 32 31 41 45 57 52 41 42 48 53 42 45 38 76 91 94 98 69 98 100 84 94 90 90 73 76 74 77 97 85 92 92 95 58 54 56 49 47 61 52 61
27 33 34 34 31 31 39 48 60 59 56 52 52 57 90 54 33 50 62 76 79 73 93 98 90 74 82 83 76 78 88 97 96 85 75 77 91 86 68 64 60 60 84 67 75
25 33 35 36 36 31 40 51 63 66 71 68 61 70 97 66 32 36 38 99 76 67 96 98 99 78 90 94 88 84 93 84 94 85 80 85 97 90 66 72 69 65 72 81 73
21 32 34 37 36 32 40 55 64 69 72 69 74 86 98 81 37 26 34 40 82 67 87 98 99 95 97 90 93 86 75 79 73 78 91 84 96 80 78 70 57 62 63 79 85
15 26 34 32 33 31 43 55 67 72 75 89 100 86 93 81 42 28 29 23 46 52 86 97 99 98 94 98 78 66 56 59 58 71 72 67 77 92 90 75 72 57 66 64 78
13 22 31 32 30 34 44 53 69 76 80 88 74 96 75 59 58 55 27 44 70 78 58 85 97 98 98 82 95 92 58 55 56 67 84 86 79 80 74 72 58 57 62 68 77
11 19 23 27 28 32 43 50 73 79 74 95 79 81 88 71 63 39 28 70 77 87 65 70 89 82 94 86 90 89 78 55 80 81 70 88 81 75 77 81 62 43 46 53 68
10 19 20 26 31 30 40 49 75 72 91 91 81 74 86 71 69 30 45 55 48 88 58 96 99 76 77 74 92 80 62 50 78 80 64 62 57 56 56 62 40 38 41 49 50
8 20 22 29 32 32 41 49 75 70 96 100 80 71 75 60 60 72 73 80 68 67 65 85 94 70 73 66 90 70 76 73 73 59 65 68 68 43 48 61 62 43 49 69 56
7 18 22 29 34 31 40 49 75 92 88 95 83 73 92 96 95 92 89 87 81 77 76 99 81 94 91 96 96 90 79 92 83 74 74 63 59 47 48 39 51 48 40 62 60
8 16 21 28 32 30 39 52 90 90 77 90 91 70 88 82 99 98 94 92 98 98 100 99 97 95 91 92 84 87 95 79 81 79 77 50 51 47 45 45 43 49 57 61 61
9 14 21 29 32 32 41 58 95 99 85 94 82 75 99 82 90 96 98 89 89 92 91 86 92 98 92 89 70 79 61 64 66 79 66 54 53 44 40 43 46 46 45 47 58
10 13 19 28 32 34 44 75 95 73 80 96 85 95 90 89 90 95 98 100 82 83 88 90 94 97 98 97 77 76 69 71 65 50 53 57 47 44 47 39 46 40 35 35 39
10 12 18 26 32 33 43 76 92 78 85 98 99 95 87 81 87 92 97 93 86 93 80 86 86 95 84 78 88 76 84 70 61 71 49 50 43 40 40 42 42 32 32 32 36
8 12 19 24 32 36 37 50 83 75 77 95 95 92 81 80 90 94 93 83 89 87 76 89 81 98 90 86 76 89 84 76 63 64 79 58 40 38 45 46 40 39 40 43 40
10 13 18 25 32 34 40 51 68 76 79 81 91 94 89 83 86 88 85 85 94 89 83 89 98 93 97 92 86 88 79 82 71 70 59 59 53 45 43 43 47 46 45 45 45
10 14 15 24 34 47 44 55 70 74 77 93 92 91 96 94 92 84 98 93 78 83 97 89 88 97 98 94 86 88 74 71 69 64 70 71 49 43 49 48 46 45 44 54 43
8 11 15 24 32 58 83 62 69 64 69 81 94 80 90 94 91 87 75 87 93 82 85 76 86 82 78 80 76 72 63 71 84 89 76 68 52 52 54 54 56 56 59 68 55
7 9 11 16 25 38 82 92 94 64 68 78 85 85 92 90 85 94 92 77 91 89 88 80 82 78 75 70 65 67 71 74 79 68 83 69 65 59 58 58 60 65 67 68 66
5 6 10 15 19 32 47 66 94 88 65 74 87 87 78 95 89 98 91 95 85 87 93 90 86 76 73 70 68 70 70 74 79 80 81 72 64 53 54 64 69 63 58 57 51
4 6 11 17 22 33 47 64 92 92 76 89 82 74 89 79 82 85 83 86 93 90 93 95 92 86 88 81 79 77 56 58 60 65 75 89 56 82 80 76 71 52 41 39 37

GFSSW_700_rhum_081.txt.gz
RH
13 16 18 19 23 33 20 27 27 30 43 44 36 27 30 28 26 27 24 27 25 28 55 76 43 38 36 63 99 91 100 84 79 56 64 57 51 44 44 48 51 45 45 50 60
12 17 19 21 22 39 19 24 32 36 48 45 26 25 30 31 33 26 26 47 53 39 50 89 76 48 62 54 100 99 100 76 69 60 64 60 53 51 49 41 58 52 50 47 50
11 15 20 23 24 42 23 26 37 45 50 37 23 28 33 30 33 39 78 93 82 68 66 99 75 70 69 74 99 99 98 96 74 71 78 67 58 56 47 36 40 49 58 52 48
10 15 21 24 25 32 24 37 43 52 53 34 28 34 36 32 38 27 68 87 93 90 62 95 76 90 73 80 90 96 97 98 94 87 81 76 65 57 51 44 36 36 57 69 62
11 15 18 26 29 30 28 42 46 56 53 38 37 40 42 42 40 44 90 92 85 84 70 97 88 94 74 66 88 99 93 99 96 92 85 83 78 63 76 68 50 41 42 62 69
13 14 18 25 31 31 30 44 49 59 54 52 49 46 46 37 31 52 94 96 98 66 77 89 100 92 59 72 98 79 90 73 97 99 95 90 79 76 79 78 64 52 46 46 56
13 14 17 25 33 34 31 45 53 62 60 64 61 50 63 51 30 41 96 95 98 72 93 95 100 97 79 85 80 88 86 79 96 96 100 96 80 80 70 69 60 51 47 46 42
12 13 15 26 34 35 32 46 59 64 65 69 69 59 71 70 37 42 87 98 97 96 98 98 94 93 82 76 68 81 78 86 95 99 93 99 98 96 87 74 64 61 52 46 40
10 11 14 26 31 32 33 46 63 66 65 69 76 68 85 77 36 36 58 82 82 94 98 81 94 98 96 82 78 86 94 96 92 99 98 97 98 98 88 88 69 60 53 45 46
14 10 13 24 28 29 34 49 60 70 69 63 70 81 84 92 36 33 34 44 59 73 86 98 88 92 89 79 91 93 92 90 86 92 100 98 91 90 72 79 72 65 78 62 50
29 10 13 20 25 27 39 51 61 71 68 63 73 88 75 56 35 30 34 24 52 54 83 100 98 85 73 82 99 91 84 73 83 70 80 72 75 72 71 71 84 57 73 80 70
66 9 14 17 24 30 39 50 61 69 61 72 80 77 75 46 30 25 32 26 50 46 59 95 97 85 82 88 91 86 74 85 77 86 92 78 61 57 68 71 83 64 58 61 71
95 9 15 19 25 32 40 52 63 70 70 90 71 80 64 47 27 21 29 25 41 50 49 66 97 99 90 91 92 77 67 63 69 85 98 95 82 67 60 59 63 60 55 58 58
99 13 14 21 26 33 43 50 68 68 85 90 68 71 71 54 37 23 36 50 44 71 46 61 77 87 85 95 90 87 65 66 77 79 80 76 89 59 52 49 60 51 45 49 57
99 16 13 21 28 33 37 48 74 72 91 90 62 74 76 54 56 44 66 68 61 65 60 72 88 82 83 86 85 80 72 74 72 88 86 75 68 44 55 60 56 41 36 34 52
97 13 14 22 28 32 41 49 76 91 85 95 80 74 84 83 95 88 97 93 66 75 58 99 95 69 77 89 84 85 85 80 79 94 87 78 72 50 43 40 44 52 55 36 37
85 10 14 20 29 33 40 54 86 92 85 94 77 90 93 96 99 94 97 90 78 79 73 99 98 98 92 92 98 99 87 98 98 93 78 58 73 49 48 50 50 47 48 53 52
66 9 15 19 27 33 41 64 96 94 85 97 80 88 96 100 94 88 100 80 93 99 98 97 98 100 90 91 95 81 76 65 84 90 67 56 56 46 44 42 43 44 47 55 57
60 10 16 19 28 34 47 75 87 79 76 86 83 97 92 93 94 96 89 92 98 84 91 89 97 96 97 85 82 97 80 71 60 55 64 52 46 40 43 44 47 47 46 42 42
38 13 18 19 27 36 49 60 86 83 86 86 90 81 79 82 89 95 98 81 94 94 90 79 93 99 81 81 77 79 81 68 60 68 61 63 49 39 49 48 44 44 38 30 33
16 16 20 20 25 38 46 55 67 79 84 99 94 95 76 77 94 94 84 90 81 88 79 80 69 96 92 86 80 71 78 66 64 68 82 64 45 42 39 38 39 36 36 37 37
11 19 22 22 24 34 34 52 72 79 82 84 79 80 76 80 92 95 78 86 77 87 94 84 81 99 92 89 83 86 71 78 67 65 62 60 49 46 43 42 38 40 41 41 42
15 20 25 19 20 32 42 55 81 83 81 81 83 93 83 90 86 89 87 86 81 82 82 77 84 93 100 93 77 82 77 73 67 70 66 68 46 52 50 50 49 49 48 48 44
18 17 20 20 24 33 48 59 77 79 78 80 83 87 96 92 92 87 80 82 90 84 74 70 81 82 72 71 70 75 68 74 80 77 68 64 54 52 55 60 62 62 62 63 56
15 12 10 14 20 34 64 76 65 75 73 77 79 87 96 91 89 88 85 84 90 90 81 77 81 82 85 78 75 76 65 68 74 70 71 46 51 53 65 64 64 63 65 66 64
14 11 12 14 18 47 76 86 70 70 65 74 75 89 89 89 88 89 86 82 90 93 96 89 85 80 75 70 68 65 64 63 70 80 82 74 65 52 52 64 68 59 57 61 60
9 9 10 15 20 32 40 70 91 74 68 63 83 88 86 88 88 95 91 84 86 86 89 92 93 88 82 87 83 76 56 54 52 56 63 77 48 58 65 66 67 74 75 62 35

GFSSW_700_rhum_084.txt.gz
RH
9 6 8 9 13 19 23 36 19 23 32 34 42 40 21 17 18 20 22 26 24 20 36 57 71 97 87 35 77 99 99 98 86 67 53 45 55 49 44 45 46 48 50 54 60
29 9 9 9 14 21 25 32 23 33 38 44 46 32 22 22 25 24 26 32 36 34 25 63 85 89 66 28 74 100 100 94 88 64 57 54 58 50 46 41 44 49 45 52 64
42 17 10 12 14 24 27 31 29 40 43 51 46 35 37 34 31 31 30 31 79 74 36 58 64 83 67 62 80 100 95 80 87 72 62 59 64 51 47 45 45 47 47 46 51
20 9 9 10 18 25 30 30 34 42 49 55 48 50 48 39 40 36 31 71 80 97 85 53 88 92 84 67 74 100 98 94 96 82 66 70 64 57 51 46 56 59 60 52 49
68 17 8 11 16 26 33 31 35 44 56 58 56 58 50 45 43 29 38 89 84 91 92 62 98 93 83 44 79 97 100 97 98 94 83 77 65 59 55 48 43 59 60 62 68
99 60 10 10 15 24 34 32 37 47 59 61 63 63 50 53 44 36 46 91 96 81 87 69 96 94 84 59 73 85 87 93 90 99 89 83 70 61 68 57 50 42 42 52 45
97 88 21 10 17 24 30 31 41 54 62 64 59 63 57 62 41 41 80 95 85 73 76 49 96 98 84 80 69 96 96 87 88 99 100 100 77 71 80 80 75 58 49 42 54
99 98 54 10 16 25 28 28 45 59 64 63 57 63 68 72 42 42 81 94 98 63 75 89 95 88 95 79 70 97 98 99 99 98 98 99 91 85 88 85 75 67 55 53 54
100 96 91 10 15 24 25 29 48 61 64 58 58 58 59 68 37 41 61 74 97 90 95 99 97 96 86 84 86 88 99 99 99 90 99 98 97 95 84 81 78 63 56 50 49
100 98 98 18 15 22 25 34 50 67 67 59 61 61 56 47 26 38 28 68 87 98 99 96 96 98 98 92 95 90 94 93 86 84 92 99 99 100 96 79 82 76 62 57 52
100 86 98 53 15 22 26 36 50 68 68 57 57 64 38 23 30 37 27 39 60 86 94 86 96 97 99 84 80 71 72 70 75 80 100 98 100 98 87 79 74 68 84 70 65
100 95 99 89 15 22 29 38 51 66 65 55 59 47 30 32 32 31 37 31 54 56 71 96 96 88 98 93 80 66 64 81 84 73 94 96 90 94 96 65 56 69 60 86 73
100 98 96 96 16 23 30 37 47 68 59 56 62 54 33 34 27 29 44 21 44 46 63 92 96 95 97 97 90 91 90 84 74 97 97 99 96 79 81 78 77 67 47 57 76
100 100 95 96 14 27 32 37 53 66 79 63 64 64 45 34 30 23 48 42 55 53 72 80 98 97 85 95 84 89 96 96 76 90 97 99 92 69 56 56 58 52 51 59 63
100 95 95 90 14 28 32 40 66 68 90 68 62 72 73 63 52 29 48 48 55 61 63 93 90 90 91 85 80 97 86 78 85 93 84 89 95 50 59 50 43 44 48 46 48
100 90 92 74 16 29 33 45 71 92 85 90 78 65 89 94 96 86 89 57 45 70 90 95 74 95 82 87 93 100 73 74 90 99 98 78 72 46 47 38 36 41 46 45 40
100 86 83 63 17 29 36 48 81 99 82 83 61 67 96 99 94 96 99 80 63 75 100 100 83 92 94 88 91 94 77 98 98 98 83 75 73 57 41 42 41 37 34 37 41
100 90 81 38 19 32 41 59 93 81 78 88 73 82 85 96 97 99 99 80 66 60 99 97 99 92 86 98 99 98 79 78 89 92 70 69 76 48 50 47 43 42 42 50 45
100 97 95 31 21 36 45 61 67 70 76 95 82 85 87 93 100 90 95 96 83 77 90 83 99 91 97 97 93 100 86 73 63 62 62 59 50 47 40 44 42 44 42 42 40
100 98 92 31 24 40 53 41 65 77 80 76 77 81 79 88 95 88 80 84 88 91 96 86 98 100 99 96 90 84 82 68 60 71 65 66 52 35 43 46 44 44 48 49 47
100 83 91 20 27 47 55 40 55 84 78 85 91 90 82 82 98 88 94 79 83 97 88 79 80 95 91 85 84 84 79 66 63 68 74 69 51 45 45 46 46 44 40 34 32
99 87 75 18 33 44 36 40 54 83 84 86 88 79 72 84 94 95 85 89 80 93 86 75 71 90 85 82 82 76 74 67 59 66 64 66 51 42 44 44 43 40 39 40 41
87 80 39 26 34 31 40 50 62 85 83 85 80 80 78 85 94 99 91 94 88 87 76 70 79 92 94 88 76 79 72 71 59 73 67 62 49 50 51 51 52 54 53 51 47
71 77 28 32 30 34 50 59 73 88 80 74 76 89 81 87 90 86 92 94 94 90 88 85 79 72 71 70 71 75 66 68 71 80 70 60 52 58 56 56 57 58 63 59 54
98 30 13 22 24 36 55 61 72 86 79 83 79 88 90 92 94 85 81 87 93 93 90 85 80 85 85 84 79 75 68 71 72 62 77 59 59 54 55 61 63 64 67 64 61
94 21 12 16 30 46 64 54 68 72 67 73 76 91 95 91 89 77 81 80 86 87 83 74 77 80 78 75 69 64 63 62 68 74 76 76 76 63 58 62 64 62 62 64 61
61 14 17 19 23 39 41 56 70 62 67 70 79 81 89 87 89 86 82 78 84 83 82 84 81 81 82 77 74 71 57 58 56 57 57 66 58 65 72 73 71 73 69 63 59

GFSSW_700_rhum_087.txt.gz
RH
87 42 7 6 7 11 15 20 22 27 25 29 31 36 44 39 32 35 27 27 26 26 32 22 19 27 78 73 37 72 100 100 87 71 56 49 42 43 58 54 52 57 56 56 55
98 86 57 10 8 10 17 23 25 29 30 33 37 46 46 46 46 40 36 32 27 37 42 30 39 39 93 73 74 99 100 97 98 72 52 52 45 38 52 52 50 50 54 56 56
98 97 93 60 10 10 15 24 28 28 33 34 46 53 52 53 46 39 37 34 24 25 66 40 45 66 88 91 78 84 97 90 100 86 62 58 48 47 41 48 47 46 47 51 64
100 99 97 89 32 10 15 26 29 28 34 40 54 57 60 54 44 47 37 21 34 64 86 60 40 81 98 97 80 73 85 82 99 89 67 59 56 54 54 47 45 43 45 48 51
100 100 100 93 74 12 12 24 30 30 36 48 59 60 60 53 52 56 30 25 62 79 88 75 42 74 88 83 74 76 69 73 100 86 67 60 58 62 60 55 49 46 50 48 51
100 100 100 97 86 28 11 22 29 33 42 55 61 60 60 61 69 45 24 69 95 96 97 93 45 73 91 85 81 75 68 94 94 93 77 74 65 65 65 59 61 58 57 58 59
98 100 100 96 90 46 12 20 26 36 45 59 61 54 61 66 69 25 64 83 94 94 85 90 70 85 94 90 80 89 66 94 99 97 100 85 78 68 64 65 62 71 72 70 74
91 100 100 93 98 71 14 20 26 40 51 60 55 55 50 63 45 36 83 92 86 74 91 87 87 98 98 91 78 84 96 98 96 98 100 98 91 78 70 72 65 64 59 59 59
100 100 100 100 99 71 18 21 26 43 58 62 50 51 40 39 22 36 42 71 97 69 76 88 95 98 100 89 78 91 79 97 99 96 98 98 99 96 75 79 71 71 61 59 64
95 97 100 100 99 61 30 23 27 43 65 59 53 45 31 20 28 35 33 50 89 86 82 92 98 97 100 93 91 84 81 98 99 99 97 99 100 99 95 85 76 70 63 58 57
99 94 100 100 99 81 36 24 30 44 65 55 48 36 24 18 30 37 31 51 68 92 98 98 88 98 100 92 83 54 88 99 96 98 99 95 99 100 98 90 83 72 63 56 54
82 97 100 100 99 94 29 25 28 41 67 52 46 23 20 19 20 35 37 53 70 78 89 85 85 86 93 87 81 74 64 82 94 97 95 95 98 87 100 94 85 77 64 59 51
95 100 100 100 100 89 28 24 29 46 68 53 55 45 33 20 16 28 34 56 66 57 63 84 98 74 98 87 80 85 74 70 58 89 94 94 90 85 96 89 82 67 63 62 54
100 97 100 100 99 90 25 25 29 53 71 60 62 67 41 18 19 19 33 48 73 71 58 77 99 85 95 99 90 82 87 74 74 88 97 77 95 62 72 90 68 53 56 62 60
100 99 100 99 100 92 34 28 31 61 93 67 61 72 70 57 31 24 37 44 65 71 64 84 99 95 97 98 90 94 78 94 88 83 91 94 98 60 61 76 59 52 60 60 60
100 100 100 100 100 78 30 31 35 74 93 84 65 72 86 82 90 79 71 52 62 81 98 87 95 90 96 98 99 86 98 99 100 99 97 83 81 53 54 52 52 49 50 47 49
99 100 99 100 100 70 33 32 42 97 70 78 59 76 93 96 95 96 88 55 77 96 99 92 86 92 96 92 82 92 90 98 98 98 87 83 92 55 50 49 49 45 40 44 49
95 100 99 99 100 61 37 31 61 65 66 73 63 84 87 93 90 90 74 71 70 94 94 88 86 99 96 79 87 99 73 77 93 95 77 85 79 54 51 48 48 46 40 40 43
98 98 99 99 99 40 44 29 36 58 68 84 77 84 90 91 94 89 92 71 69 75 91 91 97 86 98 100 92 87 69 69 61 69 68 78 67 48 49 48 45 42 41 40 39
98 98 100 99 88 40 51 22 40 72 73 82 74 79 80 92 94 97 88 87 74 96 94 92 96 95 99 99 98 84 67 63 60 74 61 64 54 39 39 41 43 44 43 43 44
98 98 99 99 85 54 41 19 37 70 78 76 89 82 76 83 98 81 80 76 91 100 97 86 80 92 94 93 93 82 78 67 63 69 74 77 51 47 37 43 46 47 46 45 43
98 98 98 99 90 63 26 16 50 82 85 83 93 83 71 83 87 82 84 84 92 97 92 84 86 96 93 82 80 83 79 68 57 69 64 62 54 43 43 53 48 47 46 43 44
98 98 98 99 82 46 16 22 52 88 88 89 93 79 76 78 88 94 87 87 87 89 79 70 67 89 92 92 84 82 72 72 66 63 64 63 54 49 49 48 46 50 52 53 50
98 98 98 99 77 26 18 34 65 91 90 91 81 85 78 89 94 90 84 88 82 87 84 79 74 68 66 67 73 78 71 72 73 67 61 53 49 52 56 57 56 54 51 50 49
98 98 86 84 73 20 22 56 99 96 95 90 80 84 78 94 97 94 88 82 86 86 86 78 71 76 73 80 76 73 69 66 67 69 71 59 53 58 59 58 59 62 66 66 61
100 98 91 62 20 25 30 53 65 93 89 85 76 83 80 85 82 81 82 88 96 89 90 85 83 84 81 79 76 69 70 70 69 72 71 68 66 60 64 62 64 68 67 65 62
98 99 60 33 13 26 28 48 62 80 78 76 79 84 92 79 84 84 87 87 88 92 90 87 80 79 80 77 75 69 59 59 58 56 56 60 52 65 67 67 66 69 72 70 66

GFSSW_700_rhum_090.txt.gz
RH
98 100 94 86 88 59 15 7 12 18 22 28 28 29 31 39 45 46 46 41 36 35 32 28 26 22 21 30 58 58 100 96 87 99 66 76 60 50 50 51 58 52 60 69 87
98 97 100 100 98 86 55 11 11 19 24 26 29 33 40 49 49 49 41 36 35 31 26 22 28 32 22 31 53 88 100 87 53 74 85 87 76 47 46 49 57 54 54 72 79
100 92 100 100 100 86 54 16 14 18 21 27 32 40 51 53 48 41 38 42 35 24 21 21 35 39 40 49 60 99 92 70 65 73 95 84 86 58 43 46 59 55 54 56 73
81 98 90 100 100 97 73 19 16 18 23 29 34 49 55 53 53 48 51 46 26 41 51 70 75 50 45 66 70 87 77 95 67 88 83 79 79 64 46 43 52 59 58 58 70
83 100 98 99 100 100 87 26 18 21 21 31 42 54 51 49 52 58 56 27 70 93 95 82 96 56 63 79 80 98 71 78 86 85 94 99 75 77 44 41 46 53 58 72 73
71 84 90 96 100 100 94 34 20 24 25 36 51 52 46 50 53 54 22 72 99 100 99 81 99 58 60 87 97 83 84 73 78 72 66 100 72 61 52 44 46 56 52 57 54
79 71 77 97 100 100 99 34 23 26 31 39 53 47 39 44 42 26 50 98 100 91 99 98 100 56 54 91 92 77 86 65 74 72 87 100 73 67 59 55 58 54 64 63 63
80 81 70 100 100 100 98 35 26 29 36 41 54 46 40 26 20 37 44 86 99 76 76 96 98 55 82 98 79 74 96 96 83 71 98 98 84 70 62 68 66 67 66 72 74
86 81 95 99 100 99 99 51 31 30 41 47 54 42 31 20 26 37 37 58 98 72 77 93 87 68 83 97 92 73 99 98 93 91 98 92 97 74 70 71 71 75 75 70 87
77 98 86 93 100 100 100 94 32 33 46 55 50 37 28 19 32 36 31 46 98 83 64 85 91 93 97 85 93 85 92 89 79 88 99 100 99 99 82 78 77 70 69 75 89
31 91 78 95 100 99 100 99 37 37 44 53 43 30 19 18 28 38 29 38 57 83 91 94 97 97 96 83 88 61 54 72 98 93 100 98 98 100 96 88 83 73 70 63 61
6 71 100 100 100 100 99 99 36 40 55 58 45 34 16 19 22 32 29 34 54 80 96 94 97 87 98 90 91 65 66 98 81 98 98 97 96 93 97 89 90 83 73 64 62
7 25 99 100 100 100 100 94 38 53 60 65 50 47 33 29 21 26 30 38 55 72 80 82 82 87 89 91 86 91 62 75 76 79 78 96 93 72 81 99 99 88 76 63 57
12 11 71 100 100 100 100 92 59 61 70 71 55 60 49 34 24 19 22 26 48 69 66 75 98 95 97 89 91 79 78 69 63 63 83 85 93 77 90 80 85 99 71 64 58
14 12 13 84 99 100 99 91 72 76 80 75 61 72 73 67 40 19 24 33 52 70 66 97 98 95 97 98 96 93 79 74 77 77 67 97 89 72 69 77 98 88 79 69 61
16 16 15 45 99 99 98 89 72 82 69 70 59 73 90 98 96 61 41 46 63 85 100 98 99 97 99 98 94 99 86 91 87 77 92 88 72 58 65 60 80 81 64 58 55
28 22 16 33 100 98 99 88 88 85 53 73 62 77 97 97 98 85 73 62 84 94 98 90 93 96 92 94 99 91 99 99 98 98 92 85 85 58 59 55 77 74 57 51 57
52 31 15 15 98 98 97 93 91 40 65 62 59 83 98 95 86 87 67 60 78 94 84 81 87 97 98 90 83 98 96 95 94 96 94 100 82 61 55 51 51 60 51 44 47
66 30 34 30 98 98 97 95 40 32 51 59 69 81 100 88 80 80 74 74 93 93 90 85 92 100 100 89 91 90 74 66 69 72 78 89 72 57 50 48 51 51 49 51 58
76 99 100 82 98 97 97 81 47 40 66 66 63 79 90 77 82 89 83 71 77 96 92 84 90 97 100 100 93 82 70 63 57 80 65 65 60 45 49 48 47 46 46 47 48
94 99 100 98 98 97 99 94 53 47 67 68 74 81 90 68 83 82 81 86 93 94 89 90 82 99 95 98 87 80 70 66 66 68 73 71 50 50 47 54 52 48 49 51 50
99 98 96 97 96 95 99 84 51 59 70 72 83 92 82 79 85 97 85 87 96 95 89 84 82 95 100 95 85 78 72 64 55 69 63 60 56 46 48 55 54 49 48 46 45
94 99 97 98 96 92 98 75 58 68 72 72 87 90 78 78 82 92 88 87 96 94 90 75 79 95 84 80 75 77 75 71 64 59 61 63 57 54 55 52 49 50 52 50 49
94 99 98 98 95 94 97 55 71 74 72 76 91 87 82 82 89 85 83 93 98 98 92 81 73 69 74 68 75 74 72 68 68 61 53 50 53 53 52 51 51 54 55 54 53
98 94 86 96 98 96 76 68 77 75 74 90 91 89 82 92 90 90 87 85 78 86 81 79 75 73 79 81 79 73 69 70 69 69 66 56 54 55 56 54 54 55 56 58 60
88 94 80 97 92 97 61 80 79 74 63 89 82 82 92 80 75 72 75 80 80 86 79 84 82 89 87 84 78 73 74 69 67 67 66 67 58 59 61 63 63 60 61 64 66
86 94 91 94 76 86 66 89 92 72 74 78 77 77 93 92 88 83 80 82 79 78 78 84 77 79 75 75 70 62 61 62 60 57 55 56 50 57 63 69 72 73 70 66 66

GFSSW_700_rhum_093.txt.gz
RH
77 78 90 99 86 98 99 92 42 10 14 14 16 20 25 26 31 39 42 40 33 32 34 36 35 34 32 24 27 62 93 93 86 66 44 39 62 77 60 65 70 64 65 58 57
91 79 74 93 99 94 99 98 74 17 17 18 19 24 29 33 42 41 33 30 30 34 34 29 28 26 24 27 26 54 91 88 73 54 63 63 66 58 79 64 60 63 60 62 64
64 83 78 89 86 97 97 100 94 24 17 22 22 30 37 47 42 28 32 39 44 43 33 22 19 21 39 38 31 42 64 70 88 63 79 74 68 77 96 77 65 53 52 57 57
22 54 75 75 82 95 92 98 98 39 18 24 28 38 48 53 44 35 43 44 41 26 34 66 56 40 25 47 34 51 47 56 72 70 85 83 77 88 89 75 74 59 52 53 63
6 22 59 76 82 94 89 97 100 66 21 24 34 48 56 48 38 34 27 31 43 77 79 90 80 96 88 73 50 66 50 60 71 78 85 82 79 93 86 81 83 70 63 64 65
4 10 30 67 98 99 100 99 100 73 30 26 40 53 60 47 37 17 19 48 78 92 99 85 87 95 98 73 58 67 67 78 78 82 83 91 64 91 72 84 71 77 67 74 80
3 6 25 80 79 98 100 98 96 99 43 32 51 58 55 46 21 20 42 50 82 71 66 87 97 98 96 54 64 88 89 80 89 73 91 90 77 98 85 84 74 73 75 78 96
4 4 22 88 53 99 86 100 99 100 58 34 56 64 57 39 18 34 38 46 87 72 78 75 93 98 84 63 89 94 99 99 80 68 77 74 60 86 98 92 76 76 82 76 65
6 5 5 19 99 88 100 94 98 99 84 40 56 73 51 26 22 36 30 43 98 75 82 96 95 95 69 81 97 95 96 88 89 68 62 74 66 86 100 87 73 71 87 86 69
8 8 5 28 83 84 99 100 100 99 76 49 60 73 48 22 23 33 23 42 83 93 79 90 97 93 77 93 97 87 95 96 81 73 83 67 72 95 97 81 71 66 75 85 77
13 12 8 7 88 100 99 100 100 98 64 64 70 68 47 23 20 32 26 33 79 92 100 97 93 80 88 95 99 76 62 94 99 100 96 96 99 90 95 76 70 65 65 74 79
23 18 13 8 33 90 90 99 99 98 69 59 74 76 52 22 20 26 29 35 70 92 96 87 90 91 97 81 98 80 72 93 96 99 85 78 97 99 96 79 71 64 67 79 87
28 24 17 18 19 69 99 99 98 96 81 66 78 78 64 36 16 21 27 43 60 80 90 79 87 94 99 86 95 87 67 84 90 84 71 85 99 98 99 98 77 72 73 77 85
30 30 22 18 91 60 92 100 98 95 90 73 81 82 68 35 22 17 26 31 49 66 72 88 96 94 98 94 95 86 77 80 62 64 75 75 94 99 97 99 89 77 73 72 70
49 34 29 25 60 88 68 99 98 94 94 81 80 75 74 56 49 19 33 46 58 73 83 96 96 100 93 98 97 84 86 81 75 63 47 86 94 97 92 98 98 84 71 67 66
64 38 33 33 33 84 65 98 95 97 91 82 72 84 88 90 83 58 41 52 61 94 98 99 100 99 92 100 96 96 91 87 85 74 85 94 93 76 69 68 82 98 78 79 76
55 44 35 32 22 37 98 98 93 90 63 87 73 86 94 83 98 82 44 60 84 92 93 93 99 98 97 98 99 95 86 98 92 89 91 92 81 71 59 56 69 98 98 89 85
80 59 65 29 20 31 100 97 96 49 66 82 74 90 92 80 88 75 42 73 82 92 83 84 88 96 95 97 98 98 86 86 91 92 98 96 90 68 55 54 70 86 92 91 78
78 68 47 28 26 38 100 95 91 45 62 61 88 88 82 99 70 54 56 83 91 95 92 87 98 98 100 89 90 76 77 69 73 83 83 89 69 75 66 78 98 88 71 53 51
78 57 51 57 82 100 100 96 94 76 67 72 71 80 70 82 60 71 75 71 84 99 95 90 94 99 100 100 87 76 72 63 59 78 75 64 58 59 70 78 70 63 56 54 55
84 71 98 98 98 99 98 96 92 88 77 75 76 69 71 69 62 83 88 82 96 99 94 90 90 100 99 94 86 77 67 59 64 66 65 64 54 56 63 64 60 56 58 56 54
97 89 98 97 100 100 100 96 91 86 83 87 93 65 72 69 73 87 87 97 98 97 93 90 92 98 100 95 85 77 70 60 51 66 60 57 61 49 60 62 57 52 48 44 40
97 74 98 100 100 93 93 95 84 92 85 90 92 70 80 82 87 91 85 96 98 96 90 80 81 94 78 79 78 72 69 65 56 55 57 60 62 62 60 53 52 51 50 49 48
96 83 98 99 98 94 96 96 75 98 92 97 92 74 83 89 85 79 83 91 98 99 92 78 75 63 69 73 75 68 68 65 61 50 56 56 60 59 56 56 54 53 53 53 53
96 82 98 98 100 96 96 97 66 100 100 98 96 74 74 90 89 86 83 81 91 88 82 76 73 75 79 82 78 72 64 64 63 63 57 56 58 59 58 58 56 58 59 59 59
93 81 79 92 85 95 97 95 69 100 100 98 91 84 80 74 79 73 79 82 78 80 82 82 86 80 78 77 73 72 71 68 67 67 65 62 60 64 66 68 68 66 62 60 60
54 63 74 80 96 96 95 64 99 100 100 95 80 80 87 81 80 78 77 79 82 78 79 77 77 78 78 73 67 66 66 66 64 59 56 57 60 63 64 64 68 71 73 73 73

GFSSW_700_rhum_096.txt.gz
RH
35 50 55 58 70 67 78 79 88 83 82 52 15 12 15 22 26 26 34 38 37 28 29 27 26 28 30 34 32 32 77 79 68 63 60 52 56 69 67 83 73 80 80 89 54
6 27 53 68 57 75 76 76 83 77 87 79 32 14 18 24 32 38 36 30 28 28 31 33 33 30 29 27 31 43 82 73 67 65 63 68 65 66 78 88 71 78 97 72 60
3 4 6 42 71 90 80 82 85 86 85 93 28 17 20 29 37 33 30 32 31 26 31 37 35 29 21 18 29 64 80 69 77 76 78 83 78 79 87 79 83 78 87 69 70
3 3 3 4 64 61 100 90 92 92 89 87 36 24 26 34 44 36 34 27 20 16 25 29 38 40 30 25 54 88 42 82 78 81 93 93 92 92 86 79 84 86 81 80 68
5 4 3 4 13 52 69 100 95 100 85 81 92 55 25 40 43 39 25 17 40 56 71 74 84 98 97 87 99 87 74 82 74 79 92 86 97 97 91 78 48 86 86 92 77
4 5 4 3 11 54 78 94 100 95 100 96 96 27 28 48 37 29 17 42 50 60 64 72 75 94 96 96 96 92 94 86 81 82 88 92 67 100 63 78 62 63 82 88 95
4 4 4 4 5 57 84 91 94 87 98 100 83 41 39 52 38 19 32 41 49 77 64 67 73 98 96 97 93 84 96 80 91 65 88 91 97 97 74 76 80 69 91 96 99
6 6 5 6 5 47 75 83 99 94 93 99 86 36 44 49 30 22 35 35 49 67 64 67 97 93 91 90 81 58 92 98 75 68 78 94 79 76 85 75 84 72 90 93 99
14 9 9 9 6 36 68 99 97 93 100 99 83 53 46 42 22 27 34 31 55 67 90 84 77 80 94 93 85 76 97 94 97 71 89 88 83 81 76 76 69 83 95 88 95
28 17 15 15 10 28 94 97 92 96 98 100 83 59 53 50 20 30 34 31 64 96 85 100 97 99 73 69 79 95 94 85 88 86 88 65 57 56 60 88 76 75 83 84 93
89 31 29 24 15 10 69 96 96 99 98 97 86 59 63 51 25 25 34 32 66 91 98 100 98 98 98 89 91 97 98 82 96 89 90 85 49 45 72 81 73 74 69 82 96
88 52 39 28 18 13 20 100 95 95 98 96 86 73 82 49 23 25 34 45 58 93 100 94 92 99 98 98 94 100 96 95 99 100 91 84 64 53 65 72 98 98 75 83 93
91 74 56 40 32 89 77 99 97 86 98 96 91 81 84 64 34 24 37 47 53 85 90 89 85 95 100 86 95 100 77 100 94 99 93 85 62 69 59 74 98 96 77 80 88
85 84 71 56 36 86 93 100 93 97 96 83 76 80 83 67 32 24 32 34 44 70 77 94 92 97 92 100 93 87 80 95 90 98 80 71 96 99 99 99 100 80 74 89 99
88 99 75 76 45 25 96 91 82 96 94 84 83 84 71 46 45 27 31 39 54 74 88 90 89 97 94 97 95 96 78 72 67 93 81 94 95 98 99 100 100 96 75 81 89
92 100 92 75 53 36 67 98 85 94 93 93 89 84 86 86 86 57 29 47 73 95 93 87 88 97 94 98 98 87 80 75 87 89 73 99 98 98 94 97 100 99 99 92 98
94 97 93 76 65 76 29 99 100 96 73 94 84 83 96 96 99 61 30 78 92 99 94 89 95 88 99 99 97 86 93 83 76 83 84 98 98 91 78 66 91 99 100 97 100
98 99 87 67 50 76 42 98 98 86 84 100 80 96 89 96 89 62 46 84 87 88 89 96 93 97 94 98 95 91 90 79 66 67 80 98 89 93 87 63 80 99 100 100 100
94 94 74 57 39 48 88 99 97 92 82 95 94 92 98 87 91 62 52 79 91 96 100 98 99 97 98 98 98 92 90 75 75 73 61 76 69 91 100 99 100 100 99 91 88
88 78 64 49 37 80 99 87 96 84 95 84 94 97 98 96 91 69 73 81 93 96 99 94 98 95 94 99 94 85 69 71 66 65 71 55 61 80 91 93 98 84 65 64 64
90 78 56 96 83 99 95 88 96 90 98 81 84 90 77 82 84 74 79 75 97 99 97 98 98 97 95 95 87 77 77 61 63 67 46 51 56 72 70 75 77 74 74 75 73
82 95 97 97 98 97 99 88 97 92 98 85 94 82 70 71 80 82 85 96 95 98 97 94 96 96 88 89 78 69 61 59 57 58 56 49 58 68 67 64 60 59 57 54 50
78 94 98 97 96 100 93 96 91 98 96 96 99 85 59 76 91 87 93 88 89 94 84 80 80 89 80 81 74 70 60 53 49 50 64 49 60 65 61 56 53 50 48 47 48
71 89 98 98 94 91 96 95 94 99 96 99 95 86 74 84 75 76 86 94 95 86 79 69 60 63 69 79 75 72 67 59 47 60 56 60 74 66 60 59 58 58 57 55 54
85 89 93 86 90 94 96 96 88 99 95 93 94 84 76 87 75 72 70 86 89 81 77 74 76 69 78 78 73 67 63 60 52 56 64 68 68 68 63 63 62 59 56 57 57
64 76 93 78 90 96 96 96 72 92 91 93 95 83 77 78 78 67 64 68 75 75 69 73 80 78 78 74 70 67 63 63 59 58 61 63 67 66 67 68 67 66 65 63 60
49 64 74 94 96 96 96 94 74 94 90 93 97 81 77 82 79 74 73 69 63 67 67 69 66 65 70 63 61 63 63 62 60 58 60 69 63 66 68 69 69 68 66 65 64

GFSSW_700_rhum_099.txt.gz
RH
5 5 9 25 51 77 65 80 73 65 74 76 72 64 62 20 14 15 19 24 31 28 23 24 24 24 24 25 29 32 79 70 60 59 53 45 40 34 40 46 50 50 55 62 82
8 5 4 4 10 49 73 72 97 72 75 80 75 70 51 26 18 20 19 28 28 26 27 23 25 27 31 43 49 48 76 59 56 53 52 48 44 42 40 43 52 61 64 79 76
12 7 5 4 3 10 61 84 96 99 86 88 84 78 70 55 26 23 27 25 24 22 14 13 17 23 28 41 88 94 78 65 60 58 56 56 53 49 50 44 50 53 64 70 88
10 8 7 5 4 4 36 98 88 92 99 88 87 85 78 74 34 29 31 26 18 12 26 50 54 66 100 97 68 80 81 77 71 65 61 64 62 74 66 58 54 51 60 75 77
6 5 4 5 5 4 9 65 85 77 98 87 91 89 92 39 32 33 34 23 15 35 48 62 57 77 96 99 99 88 79 80 77 76 74 68 75 92 68 80 75 72 75 96 91
5 5 4 4 5 5 10 55 84 94 70 98 68 91 79 40 42 37 33 17 33 42 50 68 55 75 99 97 95 96 97 85 80 80 77 73 65 72 87 73 94 94 91 98 99
13 8 8 7 6 5 9 72 97 100 99 97 98 85 88 50 41 40 21 25 35 40 58 63 61 100 99 89 88 96 100 90 86 80 78 72 66 68 79 89 75 100 79 75 97
84 33 13 14 10 7 13 64 92 84 100 92 99 86 75 47 50 40 18 30 34 40 55 68 61 90 100 95 100 99 97 87 74 79 87 78 73 70 72 86 82 96 99 56 89
96 89 32 18 18 12 36 51 99 76 98 98 97 94 84 63 45 24 23 32 26 45 66 72 83 95 99 90 100 84 85 84 83 89 84 85 88 78 77 81 96 86 65 59 51
88 92 73 36 30 18 36 99 97 100 98 99 79 96 82 60 50 21 28 32 26 80 89 92 97 98 100 99 74 79 92 86 98 83 83 86 87 78 94 71 68 59 49 56 63
87 83 90 53 36 21 19 73 98 80 98 96 99 94 76 64 53 21 25 34 34 81 93 97 99 100 99 99 98 95 98 96 98 96 88 90 92 71 84 67 73 77 56 58 77
79 82 97 67 34 24 19 87 91 87 89 90 100 97 88 78 45 19 24 36 47 90 96 94 92 90 98 96 99 100 98 93 96 95 96 92 81 81 90 43 75 96 91 64 90
97 94 96 79 59 94 84 63 44 94 98 97 99 98 90 78 48 27 24 36 54 100 94 98 95 98 98 92 92 99 98 90 98 91 96 98 99 96 87 57 62 93 88 60 93
95 96 96 87 64 76 98 94 98 99 98 99 96 86 82 75 62 27 23 34 35 82 100 97 100 93 98 98 99 95 82 98 92 98 97 95 86 84 85 62 56 59 76 75 97
89 93 92 83 66 37 64 96 95 77 95 97 90 85 81 78 51 26 26 31 71 100 92 96 96 92 95 98 91 96 85 94 82 93 99 95 76 98 99 100 89 99 64 81 96
94 96 96 80 64 45 84 83 99 98 95 99 96 81 80 56 62 35 27 39 72 85 93 85 92 92 99 94 96 96 72 91 96 99 96 98 98 98 97 100 100 100 91 99 99
84 98 99 62 61 68 39 100 96 97 93 98 97 96 99 87 99 70 55 88 100 99 96 95 99 91 99 94 96 96 83 93 94 89 94 98 99 99 98 97 100 97 100 99 100
91 92 86 57 66 87 61 98 97 100 97 94 92 91 98 100 97 95 94 91 82 98 93 88 96 89 92 100 92 99 98 97 66 81 91 99 98 98 99 99 100 100 100 100 100
86 89 64 47 51 66 100 96 97 95 89 97 87 100 94 98 95 89 87 96 99 94 98 91 97 87 98 97 95 96 93 76 63 56 55 93 98 96 100 100 100 100 99 100 100
87 83 91 86 55 94 100 96 96 87 95 79 94 96 86 82 84 95 92 90 99 90 89 96 97 92 97 98 91 89 74 84 74 61 63 80 95 98 99 99 100 100 100 100 98
88 72 66 80 70 95 97 97 96 99 82 100 93 86 70 76 96 82 89 72 88 94 96 96 98 99 97 93 100 93 74 66 62 60 41 56 94 81 92 98 92 90 91 90 81
96 87 61 78 77 95 97 94 96 95 76 83 89 95 80 86 86 86 93 92 89 95 98 97 100 96 86 75 76 90 80 66 52 48 50 51 74 77 88 82 83 75 68 65 61
96 98 85 88 98 91 97 95 96 95 83 96 95 94 95 93 90 96 97 86 88 85 88 79 81 94 82 71 79 87 77 66 52 59 65 49 66 75 66 75 60 54 54 53 52
87 97 95 96 78 83 95 96 95 84 91 96 95 84 92 94 85 96 98 81 86 76 66 72 93 94 79 92 80 87 70 47 60 55 48 54 73 78 64 55 54 58 61 56 55
64 70 80 76 77 90 96 94 90 84 89 96 87 93 88 88 89 96 73 73 81 74 69 84 72 72 79 72 67 69 73 62 56 61 63 62 67 71 76 76 63 60 58 56 55
58 70 67 63 79 93 92 88 99 81 89 98 98 94 92 88 95 86 71 88 89 64 60 66 73 74 79 62 59 58 62 68 72 66 62 64 71 77 69 62 63 59 57 56 55
59 79 80 79 82 91 94 94 91 84 91 90 92 92 93 76 68 67 60 62 61 74 56 61 61 79 76 58 72 62 62 60 55 68 68 64 71 59 60 60 59 61 64 63 60